GEFSSE_prec_meanprecacc_048.txt.gz
Total_Precipitation_Accumulation
0.00 0.00 0.04 0.06 0.06 0.08 0.08 0.04 0.01 0.01 0.02 0.03 0.05 0.08 0.08 0.07 0.04 0.01 0.00 0.00 0.01 0.03 0.07 0.12 0.15 0.19 0.21 0.18 0.09 0.04 0.01 0.00 0.00 0.00 0.00 0.00 0.01 0.01 0.01 0.00 0.00 0.01 0.01
0.00 0.00 0.03 0.05 0.06 0.08 0.07 0.04 0.01 0.00 0.01 0.03 0.05 0.07 0.07 0.05 0.02 0.01 0.01 0.02 0.02 0.03 0.07 0.11 0.15 0.17 0.14 0.09 0.05 0.02 0.00 0.00 0.00 0.00 0.00 0.00 0.00 0.00 0.00 0.00 0.01 0.01 0.03
0.00 0.00 0.02 0.03 0.05 0.07 0.06 0.03 0.01 0.00 0.01 0.03 0.05 0.06 0.05 0.02 0.01 0.00 0.01 0.01 0.01 0.02 0.03 0.05 0.06 0.06 0.04 0.02 0.01 0.01 0.00 0.00 0.00 0.00 0.00 0.00 0.00 0.00 0.00 0.00 0.01 0.03 0.04
0.00 0.00 0.01 0.02 0.04 0.05 0.05 0.03 0.01 0.00 0.01 0.02 0.04 0.05 0.04 0.02 0.01 0.00 0.00 0.00 0.00 0.01 0.01 0.01 0.01 0.01 0.00 0.00 0.00 0.00 0.00 0.00 0.00 0.00 0.00 0.00 0.00 0.00 0.00 0.01 0.02 0.03 0.04
0.00 0.00 0.01 0.02 0.04 0.05 0.04 0.02 0.01 0.01 0.01 0.02 0.03 0.04 0.05 0.05 0.03 0.01 0.00 0.00 0.00 0.00 0.00 0.00 0.00 0.00 0.00 0.00 0.00 0.00 0.00 0.00 0.00 0.00 0.00 0.00 0.00 0.00 0.00 0.01 0.02 0.03 0.03
0.00 0.00 0.01 0.02 0.03 0.04 0.03 0.02 0.01 0.01 0.01 0.01 0.02 0.02 0.05 0.08 0.09 0.06 0.01 0.00 0.00 0.00 0.00 0.00 0.00 0.00 0.00 0.00 0.00 0.00 0.00 0.00 0.00 0.00 0.00 0.00 0.00 0.00 0.01 0.02 0.03 0.03 0.02
0.00 0.00 0.01 0.02 0.03 0.03 0.03 0.02 0.01 0.01 0.01 0.01 0.01 0.01 0.03 0.07 0.11 0.10 0.03 0.01 0.00 0.00 0.00 0.00 0.00 0.00 0.00 0.00 0.00 0.00 0.00 0.00 0.00 0.00 0.00 0.00 0.00 0.00 0.01 0.02 0.03 0.03 0.04
0.00 0.00 0.01 0.02 0.03 0.03 0.03 0.02 0.01 0.01 0.01 0.01 0.00 0.00 0.02 0.04 0.08 0.10 0.05 0.01 0.00 0.00 0.00 0.00 0.01 0.01 0.00 0.00 0.00 0.00 0.00 0.00 0.00 0.00 0.00 0.00 0.00 0.00 0.01 0.03 0.04 0.05 0.06
0.00 0.00 0.00 0.02 0.03 0.04 0.03 0.02 0.01 0.01 0.00 0.00 0.00 0.00 0.00 0.01 0.03 0.06 0.04 0.01 0.00 0.00 0.01 0.01 0.02 0.02 0.01 0.01 0.00 0.00 0.00 0.00 0.00 0.00 0.00 0.00 0.00 0.00 0.02 0.04 0.07 0.09 0.10
0.01 0.00 0.00 0.01 0.02 0.03 0.03 0.02 0.01 0.01 0.00 0.00 0.00 0.00 0.00 0.00 0.01 0.03 0.02 0.01 0.00 0.01 0.01 0.02 0.02 0.02 0.01 0.01 0.00 0.00 0.00 0.00 0.00 0.00 0.00 0.00 0.00 0.01 0.03 0.05 0.08 0.10 0.12
0.01 0.00 0.00 0.00 0.01 0.01 0.02 0.01 0.01 0.01 0.01 0.00 0.00 0.00 0.00 0.00 0.01 0.01 0.00 0.00 0.00 0.01 0.01 0.01 0.01 0.01 0.01 0.00 0.00 0.00 0.00 0.00 0.00 0.00 0.00 0.00 0.00 0.01 0.02 0.04 0.06 0.07 0.08
0.01 0.01 0.00 0.00 0.00 0.01 0.01 0.01 0.01 0.01 0.00 0.00 0.00 0.00 0.00 0.00 0.00 0.00 0.00 0.00 0.00 0.00 0.00 0.00 0.00 0.00 0.00 0.00 0.00 0.00 0.00 0.00 0.00 0.00 0.00 0.00 0.00 0.01 0.02 0.03 0.04 0.04 0.05
0.01 0.00 0.00 0.00 0.00 0.00 0.01 0.01 0.01 0.01 0.00 0.00 0.00 0.00 0.00 0.00 0.00 0.00 0.00 0.00 0.00 0.00 0.00 0.00 0.00 0.00 0.00 0.00 0.00 0.00 0.00 0.00 0.00 0.00 0.00 0.00 0.00 0.01 0.01 0.02 0.02 0.03 0.04
0.00 0.00 0.00 0.00 0.00 0.00 0.00 0.00 0.01 0.00 0.00 0.00 0.00 0.00 0.00 0.00 0.00 0.00 0.00 0.00 0.00 0.00 0.00 0.00 0.00 0.00 0.00 0.00 0.00 0.00 0.00 0.00 0.00 0.00 0.00 0.00 0.00 0.00 0.01 0.01 0.02 0.02 0.03
0.00 0.00 0.00 0.00 0.00 0.00 0.00 0.00 0.00 0.00 0.00 0.00 0.00 0.00 0.00 0.00 0.00 0.00 0.00 0.00 0.00 0.00 0.00 0.00 0.00 0.00 0.00 0.00 0.00 0.00 0.00 0.00 0.00 0.00 0.00 0.00 0.00 0.00 0.00 0.00 0.01 0.02 0.04
0.01 0.01 0.01 0.01 0.01 0.00 0.00 0.00 0.00 0.00 0.01 0.01 0.00 0.00 0.00 0.00 0.00 0.00 0.00 0.00 0.00 0.00 0.00 0.00 0.00 0.00 0.00 0.00 0.00 0.00 0.00 0.00 0.00 0.00 0.00 0.00 0.00 0.00 0.00 0.00 0.01 0.02 0.04
0.00 0.00 0.00 0.01 0.02 0.01 0.00 0.00 0.01 0.01 0.02 0.01 0.01 0.01 0.00 0.00 0.00 0.00 0.00 0.00 0.00 0.00 0.00 0.00 0.00 0.00 0.00 0.00 0.00 0.00 0.00 0.00 0.00 0.00 0.00 0.00 0.00 0.00 0.00 0.00 0.01 0.01 0.02
0.00 0.00 0.00 0.01 0.02 0.01 0.01 0.01 0.01 0.02 0.03 0.03 0.02 0.02 0.01 0.00 0.00 0.00 0.00 0.00 0.00 0.00 0.00 0.00 0.00 0.00 0.00 0.00 0.00 0.00 0.00 0.00 0.00 0.00 0.00 0.00 0.00 0.00 0.00 0.00 0.00 0.01 0.01
0.00 0.00 0.00 0.01 0.01 0.02 0.02 0.03 0.04 0.06 0.06 0.05 0.04 0.03 0.02 0.01 0.00 0.00 0.00 0.00 0.00 0.00 0.00 0.00 0.00 0.00 0.00 0.00 0.00 0.00 0.00 0.00 0.00 0.00 0.00 0.00 0.00 0.00 0.00 0.00 0.00 0.00 0.00
0.00 0.00 0.00 0.00 0.01 0.03 0.06 0.08 0.09 0.10 0.11 0.12 0.08 0.06 0.05 0.03 0.02 0.01 0.01 0.00 0.00 0.00 0.00 0.00 0.00 0.00 0.00 0.00 0.00 0.00 0.00 0.00 0.00 0.00 0.00 0.00 0.00 0.00 0.00 0.00 0.00 0.00 0.00
0.00 0.00 0.00 0.00 0.00 0.03 0.05 0.05 0.06 0.09 0.13 0.15 0.15 0.12 0.11 0.09 0.06 0.03 0.02 0.01 0.00 0.00 0.00 0.00 0.00 0.00 0.00 0.00 0.00 0.00 0.00 0.00 0.00 0.00 0.00 0.00 0.00 0.00 0.00 0.00 0.00 0.00 0.01
0.00 0.00 0.00 0.00 0.00 0.01 0.02 0.03 0.08 0.15 0.19 0.23 0.21 0.17 0.16 0.13 0.09 0.05 0.03 0.02 0.01 0.01 0.00 0.00 0.00 0.00 0.00 0.00 0.01 0.02 0.01 0.00 0.00 0.00 0.00 0.00 0.00 0.00 0.00 0.00 0.00 0.01 0.01
0.00 0.00 0.00 0.00 0.00 0.01 0.03 0.05 0.09 0.12 0.15 0.15 0.12 0.13 0.15 0.16 0.14 0.09 0.06 0.04 0.03 0.01 0.01 0.00 0.00 0.00 0.01 0.01 0.01 0.03 0.04 0.03 0.02 0.01 0.00 0.00 0.00 0.00 0.00 0.00 0.00 0.00 0.00
0.00 0.00 0.00 0.00 0.00 0.00 0.01 0.03 0.04 0.06 0.08 0.09 0.12 0.15 0.17 0.16 0.15 0.13 0.10 0.06 0.04 0.02 0.01 0.01 0.01 0.01 0.02 0.02 0.01 0.03 0.05 0.06 0.06 0.05 0.02 0.01 0.00 0.00 0.00 0.00 0.00 0.00 0.00
0.00 0.00 0.00 0.00 0.00 0.00 0.00 0.01 0.03 0.06 0.08 0.09 0.10 0.12 0.13 0.12 0.13 0.13 0.11 0.08 0.06 0.04 0.03 0.02 0.02 0.02 0.03 0.03 0.04 0.04 0.05 0.06 0.07 0.08 0.05 0.02 0.01 0.00 0.00 0.00 0.00 0.00 0.00
0.00 0.00 0.00 0.00 0.00 0.00 0.00 0.00 0.02 0.04 0.06 0.06 0.07 0.08 0.09 0.10 0.09 0.09 0.09 0.09 0.08 0.07 0.05 0.03 0.02 0.02 0.02 0.03 0.05 0.06 0.07 0.07 0.07 0.08 0.06 0.04 0.03 0.01 0.00 0.00 0.00 0.00 0.00

GEFSSE_prec_meanprecacc_054.txt.gz
Total_Precipitation_Accumulation
0.00 0.01 0.05 0.07 0.07 0.08 0.09 0.05 0.02 0.02 0.02 0.03 0.06 0.08 0.08 0.07 0.04 0.02 0.00 0.01 0.02 0.04 0.09 0.16 0.19 0.22 0.22 0.19 0.10 0.04 0.01 0.00 0.00 0.00 0.00 0.00 0.01 0.01 0.01 0.00 0.00 0.01 0.01
0.00 0.00 0.04 0.05 0.07 0.08 0.08 0.05 0.02 0.01 0.02 0.03 0.05 0.07 0.07 0.05 0.02 0.01 0.02 0.03 0.03 0.06 0.11 0.16 0.21 0.20 0.15 0.10 0.05 0.02 0.00 0.00 0.00 0.00 0.00 0.00 0.00 0.00 0.00 0.00 0.01 0.01 0.03
0.00 0.00 0.03 0.04 0.06 0.07 0.07 0.04 0.02 0.01 0.01 0.03 0.05 0.06 0.05 0.02 0.01 0.01 0.02 0.03 0.04 0.05 0.07 0.09 0.11 0.07 0.04 0.03 0.01 0.01 0.00 0.00 0.00 0.00 0.00 0.00 0.00 0.00 0.00 0.01 0.02 0.03 0.04
0.00 0.00 0.01 0.03 0.05 0.06 0.05 0.03 0.01 0.01 0.02 0.03 0.04 0.05 0.04 0.02 0.01 0.01 0.01 0.01 0.02 0.03 0.04 0.04 0.02 0.01 0.01 0.01 0.00 0.00 0.00 0.00 0.00 0.00 0.00 0.00 0.00 0.00 0.00 0.01 0.02 0.03 0.04
0.00 0.00 0.01 0.03 0.05 0.05 0.04 0.02 0.01 0.01 0.02 0.02 0.03 0.04 0.05 0.05 0.03 0.02 0.01 0.01 0.01 0.01 0.01 0.01 0.00 0.00 0.00 0.00 0.00 0.00 0.00 0.00 0.00 0.00 0.00 0.00 0.00 0.01 0.02 0.02 0.03 0.04 0.04
0.00 0.00 0.01 0.02 0.04 0.04 0.03 0.02 0.01 0.01 0.02 0.02 0.02 0.02 0.05 0.08 0.09 0.06 0.01 0.00 0.00 0.00 0.00 0.00 0.00 0.00 0.00 0.00 0.00 0.00 0.00 0.00 0.00 0.00 0.00 0.00 0.00 0.01 0.02 0.04 0.04 0.05 0.05
0.00 0.00 0.01 0.02 0.03 0.03 0.03 0.02 0.01 0.01 0.01 0.01 0.01 0.01 0.03 0.07 0.11 0.10 0.03 0.01 0.00 0.00 0.00 0.00 0.00 0.00 0.00 0.00 0.00 0.00 0.00 0.00 0.00 0.00 0.00 0.00 0.01 0.02 0.03 0.04 0.05 0.06 0.07
0.00 0.00 0.01 0.02 0.03 0.03 0.03 0.02 0.01 0.01 0.01 0.01 0.00 0.01 0.02 0.05 0.08 0.10 0.05 0.01 0.00 0.00 0.00 0.00 0.01 0.01 0.00 0.00 0.00 0.00 0.00 0.00 0.00 0.00 0.00 0.00 0.01 0.01 0.03 0.04 0.06 0.07 0.08
0.00 0.00 0.01 0.02 0.03 0.04 0.03 0.02 0.01 0.01 0.01 0.01 0.00 0.00 0.01 0.01 0.03 0.06 0.04 0.01 0.00 0.00 0.01 0.01 0.02 0.02 0.01 0.01 0.00 0.00 0.00 0.00 0.00 0.00 0.00 0.00 0.01 0.01 0.03 0.05 0.08 0.10 0.11
0.01 0.00 0.00 0.01 0.02 0.03 0.03 0.02 0.01 0.01 0.01 0.00 0.00 0.00 0.00 0.00 0.01 0.03 0.02 0.01 0.00 0.01 0.01 0.02 0.02 0.02 0.01 0.01 0.00 0.00 0.00 0.00 0.00 0.00 0.00 0.00 0.01 0.01 0.03 0.06 0.09 0.10 0.12
0.02 0.01 0.00 0.00 0.01 0.01 0.02 0.01 0.01 0.01 0.01 0.00 0.00 0.00 0.00 0.00 0.01 0.01 0.00 0.00 0.00 0.01 0.01 0.01 0.01 0.01 0.01 0.00 0.00 0.00 0.00 0.00 0.00 0.00 0.00 0.00 0.01 0.01 0.03 0.04 0.06 0.07 0.08
0.02 0.02 0.01 0.00 0.00 0.01 0.01 0.01 0.01 0.01 0.00 0.00 0.00 0.00 0.00 0.00 0.00 0.00 0.00 0.00 0.00 0.00 0.00 0.00 0.00 0.00 0.00 0.00 0.00 0.00 0.00 0.00 0.00 0.00 0.00 0.00 0.00 0.01 0.02 0.03 0.04 0.04 0.05
0.01 0.01 0.00 0.00 0.00 0.00 0.01 0.01 0.01 0.01 0.00 0.00 0.00 0.00 0.00 0.00 0.00 0.00 0.00 0.00 0.00 0.00 0.00 0.00 0.00 0.00 0.00 0.00 0.00 0.00 0.00 0.00 0.00 0.00 0.00 0.00 0.00 0.01 0.01 0.02 0.02 0.03 0.04
0.01 0.00 0.00 0.01 0.01 0.00 0.00 0.00 0.01 0.00 0.00 0.00 0.00 0.00 0.00 0.00 0.00 0.00 0.00 0.00 0.00 0.00 0.00 0.00 0.00 0.00 0.00 0.00 0.00 0.00 0.00 0.00 0.00 0.00 0.00 0.00 0.00 0.00 0.01 0.01 0.02 0.02 0.03
0.01 0.01 0.01 0.01 0.00 0.00 0.00 0.00 0.00 0.00 0.00 0.00 0.00 0.00 0.00 0.00 0.00 0.00 0.00 0.00 0.00 0.00 0.00 0.00 0.00 0.00 0.00 0.00 0.00 0.00 0.00 0.00 0.00 0.00 0.00 0.00 0.00 0.00 0.00 0.00 0.01 0.02 0.04
0.01 0.01 0.01 0.01 0.01 0.01 0.00 0.01 0.00 0.00 0.01 0.01 0.00 0.00 0.00 0.00 0.00 0.00 0.00 0.00 0.00 0.00 0.00 0.00 0.00 0.00 0.00 0.00 0.00 0.00 0.00 0.00 0.00 0.00 0.00 0.00 0.00 0.00 0.00 0.00 0.01 0.02 0.04
0.00 0.01 0.01 0.03 0.03 0.02 0.01 0.02 0.02 0.02 0.02 0.01 0.01 0.01 0.01 0.00 0.00 0.00 0.00 0.00 0.00 0.00 0.00 0.00 0.00 0.00 0.00 0.00 0.00 0.00 0.00 0.00 0.00 0.00 0.00 0.00 0.00 0.00 0.00 0.00 0.01 0.01 0.02
0.00 0.00 0.01 0.02 0.03 0.02 0.03 0.04 0.04 0.04 0.05 0.03 0.03 0.02 0.01 0.00 0.00 0.00 0.00 0.00 0.00 0.00 0.00 0.00 0.00 0.00 0.00 0.00 0.00 0.00 0.00 0.00 0.00 0.00 0.00 0.00 0.00 0.00 0.00 0.00 0.00 0.01 0.01
0.00 0.00 0.00 0.01 0.02 0.03 0.05 0.06 0.07 0.10 0.09 0.07 0.05 0.03 0.02 0.01 0.01 0.00 0.00 0.00 0.00 0.00 0.00 0.00 0.00 0.00 0.00 0.00 0.00 0.00 0.00 0.00 0.00 0.00 0.00 0.00 0.00 0.00 0.00 0.00 0.00 0.00 0.00
0.00 0.00 0.00 0.01 0.02 0.05 0.10 0.13 0.13 0.14 0.14 0.14 0.10 0.08 0.07 0.03 0.02 0.01 0.01 0.00 0.00 0.00 0.00 0.00 0.00 0.00 0.00 0.00 0.00 0.00 0.00 0.00 0.00 0.00 0.00 0.00 0.00 0.00 0.00 0.00 0.00 0.00 0.00
0.00 0.00 0.00 0.00 0.01 0.04 0.07 0.08 0.08 0.11 0.14 0.17 0.18 0.17 0.15 0.11 0.08 0.04 0.03 0.02 0.01 0.00 0.00 0.01 0.01 0.00 0.00 0.00 0.00 0.00 0.00 0.00 0.00 0.00 0.00 0.00 0.00 0.00 0.00 0.00 0.00 0.00 0.01
0.00 0.00 0.00 0.00 0.00 0.01 0.02 0.04 0.09 0.17 0.22 0.27 0.26 0.24 0.21 0.18 0.14 0.10 0.07 0.05 0.03 0.02 0.02 0.01 0.01 0.01 0.01 0.00 0.01 0.02 0.01 0.00 0.00 0.00 0.00 0.00 0.00 0.00 0.00 0.00 0.00 0.01 0.01
0.00 0.00 0.00 0.00 0.00 0.01 0.03 0.08 0.12 0.17 0.19 0.19 0.15 0.15 0.19 0.23 0.23 0.18 0.14 0.11 0.09 0.06 0.05 0.04 0.03 0.02 0.02 0.01 0.01 0.04 0.04 0.03 0.02 0.01 0.00 0.00 0.00 0.00 0.00 0.00 0.00 0.00 0.00
0.00 0.00 0.00 0.00 0.00 0.00 0.01 0.04 0.06 0.08 0.10 0.10 0.14 0.17 0.22 0.23 0.25 0.23 0.20 0.16 0.13 0.10 0.08 0.08 0.06 0.05 0.04 0.03 0.02 0.03 0.05 0.06 0.06 0.05 0.02 0.01 0.00 0.00 0.00 0.00 0.00 0.00 0.00
0.00 0.00 0.00 0.00 0.00 0.00 0.00 0.01 0.04 0.07 0.09 0.11 0.13 0.16 0.18 0.18 0.20 0.21 0.21 0.19 0.16 0.15 0.15 0.13 0.10 0.08 0.07 0.06 0.05 0.05 0.06 0.06 0.07 0.08 0.05 0.02 0.01 0.00 0.00 0.00 0.00 0.00 0.00
0.00 0.00 0.00 0.00 0.00 0.00 0.00 0.00 0.02 0.04 0.07 0.08 0.08 0.11 0.14 0.15 0.15 0.15 0.17 0.18 0.18 0.19 0.18 0.15 0.13 0.10 0.08 0.08 0.07 0.08 0.08 0.08 0.08 0.08 0.07 0.04 0.03 0.01 0.00 0.00 0.00 0.00 0.00

GEFSSE_prec_meanprecacc_060.txt.gz
Total_Precipitation_Accumulation
0.00 0.01 0.05 0.08 0.07 0.09 0.10 0.07 0.04 0.04 0.03 0.04 0.06 0.08 0.08 0.07 0.04 0.02 0.01 0.01 0.03 0.06 0.14 0.20 0.22 0.23 0.22 0.19 0.10 0.04 0.01 0.00 0.00 0.00 0.00 0.00 0.01 0.01 0.01 0.00 0.01 0.01 0.02
0.00 0.01 0.04 0.06 0.07 0.09 0.10 0.07 0.04 0.02 0.02 0.04 0.06 0.07 0.07 0.05 0.02 0.01 0.02 0.03 0.05 0.10 0.16 0.20 0.24 0.21 0.16 0.10 0.05 0.02 0.00 0.00 0.00 0.00 0.00 0.00 0.00 0.00 0.00 0.00 0.01 0.02 0.03
0.00 0.01 0.03 0.05 0.07 0.08 0.08 0.06 0.03 0.02 0.02 0.03 0.05 0.06 0.05 0.02 0.01 0.02 0.03 0.04 0.06 0.10 0.12 0.14 0.13 0.08 0.05 0.03 0.01 0.01 0.00 0.00 0.00 0.00 0.00 0.00 0.00 0.00 0.00 0.01 0.02 0.03 0.04
0.00 0.00 0.02 0.03 0.06 0.07 0.07 0.04 0.02 0.02 0.02 0.03 0.04 0.05 0.04 0.02 0.01 0.02 0.02 0.03 0.05 0.06 0.07 0.06 0.03 0.01 0.01 0.01 0.01 0.01 0.00 0.00 0.00 0.00 0.00 0.00 0.00 0.01 0.01 0.02 0.03 0.04 0.04
0.00 0.00 0.01 0.03 0.05 0.06 0.05 0.03 0.02 0.02 0.02 0.02 0.03 0.04 0.05 0.05 0.04 0.03 0.02 0.02 0.02 0.02 0.02 0.02 0.01 0.00 0.00 0.00 0.00 0.00 0.00 0.00 0.00 0.00 0.00 0.00 0.00 0.02 0.03 0.03 0.04 0.05 0.05
0.00 0.00 0.01 0.03 0.04 0.05 0.04 0.02 0.02 0.02 0.02 0.02 0.02 0.02 0.05 0.08 0.10 0.06 0.02 0.01 0.01 0.01 0.00 0.00 0.00 0.00 0.00 0.00 0.00 0.00 0.00 0.00 0.00 0.00 0.00 0.00 0.01 0.03 0.05 0.06 0.06 0.08 0.10
0.00 0.00 0.01 0.03 0.04 0.04 0.04 0.02 0.01 0.01 0.02 0.01 0.01 0.01 0.03 0.07 0.11 0.10 0.04 0.01 0.00 0.00 0.00 0.00 0.00 0.00 0.00 0.00 0.00 0.00 0.00 0.00 0.00 0.00 0.00 0.01 0.02 0.05 0.07 0.08 0.09 0.10 0.11
0.00 0.00 0.01 0.03 0.04 0.04 0.03 0.02 0.01 0.02 0.01 0.01 0.00 0.01 0.02 0.05 0.08 0.10 0.05 0.01 0.00 0.00 0.00 0.00 0.01 0.01 0.00 0.00 0.00 0.00 0.00 0.00 0.00 0.00 0.00 0.01 0.02 0.04 0.05 0.06 0.07 0.08 0.09
0.00 0.00 0.01 0.02 0.04 0.04 0.03 0.02 0.02 0.02 0.01 0.01 0.00 0.00 0.01 0.01 0.03 0.06 0.04 0.01 0.00 0.00 0.01 0.01 0.02 0.02 0.01 0.01 0.00 0.00 0.00 0.00 0.00 0.00 0.00 0.01 0.02 0.03 0.04 0.06 0.09 0.11 0.11
0.01 0.00 0.00 0.01 0.02 0.03 0.03 0.02 0.02 0.02 0.01 0.01 0.00 0.00 0.00 0.00 0.01 0.03 0.02 0.01 0.01 0.01 0.01 0.02 0.02 0.02 0.01 0.01 0.00 0.00 0.00 0.00 0.00 0.00 0.00 0.01 0.02 0.02 0.04 0.06 0.09 0.10 0.12
0.02 0.01 0.00 0.00 0.01 0.02 0.02 0.01 0.02 0.02 0.01 0.01 0.00 0.00 0.00 0.00 0.01 0.01 0.00 0.00 0.00 0.01 0.01 0.01 0.01 0.01 0.01 0.00 0.00 0.00 0.00 0.00 0.00 0.00 0.00 0.01 0.01 0.02 0.03 0.05 0.06 0.07 0.09
0.02 0.02 0.01 0.00 0.00 0.01 0.01 0.01 0.01 0.01 0.01 0.00 0.00 0.00 0.00 0.00 0.00 0.00 0.00 0.00 0.00 0.00 0.00 0.00 0.01 0.00 0.00 0.00 0.00 0.00 0.00 0.00 0.00 0.00 0.00 0.01 0.01 0.01 0.02 0.03 0.04 0.04 0.05
0.01 0.01 0.01 0.01 0.00 0.01 0.01 0.01 0.01 0.01 0.01 0.00 0.00 0.00 0.00 0.00 0.00 0.00 0.00 0.00 0.00 0.00 0.00 0.00 0.00 0.00 0.00 0.00 0.00 0.00 0.00 0.00 0.00 0.00 0.00 0.00 0.00 0.01 0.02 0.02 0.02 0.03 0.04
0.01 0.01 0.01 0.01 0.01 0.00 0.00 0.00 0.01 0.00 0.00 0.00 0.00 0.00 0.00 0.00 0.00 0.00 0.00 0.00 0.00 0.00 0.00 0.00 0.00 0.00 0.00 0.00 0.00 0.00 0.00 0.00 0.00 0.00 0.00 0.00 0.00 0.00 0.01 0.01 0.02 0.02 0.03
0.01 0.01 0.01 0.01 0.01 0.00 0.00 0.00 0.00 0.00 0.00 0.00 0.00 0.00 0.00 0.00 0.00 0.00 0.00 0.00 0.00 0.00 0.00 0.00 0.00 0.00 0.00 0.00 0.00 0.00 0.00 0.00 0.00 0.00 0.00 0.00 0.00 0.00 0.00 0.00 0.01 0.02 0.04
0.01 0.01 0.01 0.01 0.02 0.01 0.01 0.01 0.00 0.00 0.01 0.01 0.01 0.00 0.00 0.00 0.00 0.00 0.00 0.00 0.00 0.00 0.00 0.00 0.00 0.00 0.00 0.00 0.00 0.00 0.00 0.00 0.00 0.00 0.00 0.00 0.00 0.00 0.00 0.00 0.01 0.02 0.04
0.00 0.01 0.01 0.03 0.04 0.02 0.02 0.03 0.02 0.02 0.02 0.01 0.01 0.01 0.01 0.00 0.00 0.00 0.00 0.00 0.00 0.00 0.00 0.00 0.00 0.00 0.00 0.00 0.00 0.00 0.00 0.00 0.00 0.00 0.00 0.00 0.00 0.00 0.00 0.00 0.01 0.01 0.02
0.00 0.00 0.01 0.02 0.03 0.02 0.03 0.05 0.05 0.05 0.05 0.04 0.03 0.02 0.01 0.00 0.00 0.00 0.00 0.00 0.00 0.00 0.00 0.00 0.00 0.00 0.00 0.00 0.00 0.00 0.00 0.00 0.00 0.00 0.00 0.00 0.00 0.00 0.00 0.00 0.00 0.01 0.01
0.00 0.00 0.00 0.02 0.02 0.03 0.05 0.07 0.08 0.11 0.10 0.08 0.06 0.04 0.03 0.01 0.01 0.01 0.00 0.00 0.00 0.00 0.00 0.00 0.00 0.00 0.00 0.00 0.00 0.00 0.00 0.00 0.00 0.00 0.00 0.00 0.00 0.00 0.00 0.00 0.00 0.00 0.00
0.00 0.00 0.00 0.01 0.02 0.05 0.10 0.13 0.14 0.14 0.15 0.15 0.10 0.08 0.08 0.05 0.04 0.02 0.01 0.01 0.00 0.00 0.00 0.00 0.00 0.00 0.00 0.00 0.00 0.00 0.00 0.00 0.00 0.00 0.00 0.00 0.00 0.00 0.00 0.00 0.00 0.00 0.00
0.00 0.00 0.00 0.00 0.01 0.04 0.08 0.08 0.09 0.11 0.15 0.18 0.18 0.18 0.17 0.14 0.11 0.06 0.04 0.03 0.02 0.01 0.01 0.01 0.01 0.00 0.00 0.00 0.00 0.00 0.00 0.00 0.00 0.00 0.00 0.00 0.00 0.00 0.00 0.00 0.00 0.00 0.01
0.00 0.00 0.00 0.00 0.00 0.01 0.02 0.04 0.09 0.17 0.22 0.27 0.27 0.25 0.22 0.19 0.16 0.12 0.09 0.07 0.05 0.04 0.03 0.02 0.01 0.01 0.01 0.01 0.01 0.02 0.01 0.00 0.00 0.00 0.00 0.00 0.00 0.00 0.00 0.00 0.00 0.01 0.01
0.00 0.00 0.00 0.00 0.00 0.01 0.03 0.08 0.13 0.18 0.19 0.20 0.16 0.15 0.19 0.24 0.25 0.20 0.17 0.15 0.13 0.11 0.07 0.06 0.05 0.03 0.03 0.02 0.02 0.04 0.04 0.03 0.02 0.01 0.00 0.00 0.00 0.00 0.00 0.00 0.00 0.00 0.00
0.00 0.00 0.00 0.00 0.00 0.00 0.01 0.04 0.06 0.08 0.10 0.10 0.14 0.18 0.22 0.25 0.27 0.26 0.25 0.22 0.20 0.17 0.14 0.14 0.13 0.12 0.09 0.06 0.05 0.04 0.05 0.06 0.07 0.05 0.02 0.01 0.00 0.00 0.00 0.00 0.00 0.00 0.00
0.00 0.00 0.00 0.00 0.00 0.00 0.00 0.01 0.04 0.07 0.09 0.11 0.13 0.16 0.18 0.19 0.21 0.24 0.26 0.24 0.22 0.22 0.23 0.23 0.20 0.19 0.16 0.14 0.11 0.10 0.08 0.07 0.08 0.09 0.06 0.03 0.02 0.01 0.01 0.00 0.00 0.00 0.00
0.00 0.00 0.00 0.00 0.00 0.00 0.00 0.00 0.02 0.04 0.07 0.08 0.09 0.11 0.14 0.16 0.16 0.17 0.21 0.22 0.24 0.26 0.27 0.26 0.26 0.24 0.22 0.20 0.16 0.15 0.14 0.12 0.10 0.11 0.10 0.06 0.05 0.03 0.02 0.01 0.01 0.01 0.01

GEFSSE_prec_meanprecacc_066.txt.gz
Total_Precipitation_Accumulation
0.00 0.01 0.05 0.08 0.08 0.09 0.10 0.07 0.05 0.05 0.05 0.05 0.07 0.09 0.09 0.08 0.05 0.02 0.01 0.02 0.04 0.09 0.17 0.21 0.23 0.23 0.23 0.19 0.10 0.04 0.01 0.00 0.00 0.00 0.00 0.00 0.01 0.01 0.01 0.01 0.01 0.01 0.02
0.00 0.01 0.04 0.06 0.08 0.10 0.11 0.08 0.05 0.03 0.03 0.04 0.07 0.08 0.07 0.05 0.03 0.02 0.03 0.04 0.06 0.12 0.19 0.22 0.24 0.21 0.16 0.10 0.05 0.02 0.01 0.00 0.00 0.00 0.00 0.00 0.00 0.00 0.00 0.00 0.01 0.02 0.03
0.00 0.01 0.03 0.05 0.07 0.09 0.09 0.07 0.03 0.02 0.02 0.04 0.06 0.06 0.05 0.03 0.02 0.02 0.03 0.05 0.09 0.12 0.14 0.15 0.13 0.08 0.05 0.03 0.01 0.01 0.00 0.00 0.00 0.00 0.00 0.00 0.00 0.00 0.01 0.01 0.02 0.03 0.04
0.00 0.00 0.02 0.04 0.06 0.08 0.08 0.05 0.02 0.02 0.02 0.03 0.04 0.06 0.04 0.03 0.02 0.02 0.03 0.05 0.07 0.07 0.08 0.07 0.03 0.02 0.01 0.01 0.01 0.01 0.00 0.00 0.00 0.00 0.00 0.00 0.00 0.01 0.01 0.02 0.03 0.05 0.05
0.00 0.00 0.01 0.03 0.06 0.07 0.07 0.04 0.02 0.02 0.02 0.02 0.03 0.04 0.05 0.05 0.05 0.04 0.03 0.03 0.03 0.03 0.03 0.02 0.01 0.01 0.00 0.00 0.00 0.00 0.00 0.00 0.00 0.00 0.01 0.01 0.01 0.03 0.04 0.04 0.05 0.07 0.07
0.00 0.00 0.01 0.03 0.05 0.06 0.05 0.03 0.02 0.02 0.02 0.02 0.02 0.02 0.05 0.09 0.11 0.07 0.02 0.01 0.01 0.01 0.01 0.00 0.00 0.00 0.00 0.00 0.00 0.00 0.00 0.00 0.00 0.00 0.01 0.01 0.02 0.04 0.07 0.08 0.09 0.11 0.13
0.00 0.00 0.01 0.03 0.04 0.05 0.05 0.03 0.02 0.02 0.02 0.02 0.01 0.01 0.04 0.07 0.12 0.11 0.04 0.01 0.01 0.00 0.00 0.00 0.00 0.00 0.00 0.00 0.00 0.00 0.00 0.00 0.00 0.00 0.01 0.02 0.04 0.09 0.11 0.12 0.13 0.13 0.12
0.00 0.00 0.01 0.04 0.05 0.05 0.04 0.03 0.02 0.02 0.02 0.01 0.00 0.01 0.02 0.05 0.09 0.10 0.05 0.01 0.00 0.00 0.00 0.00 0.01 0.01 0.00 0.00 0.00 0.00 0.00 0.00 0.00 0.01 0.01 0.02 0.04 0.07 0.08 0.08 0.08 0.09 0.09
0.00 0.00 0.01 0.03 0.04 0.05 0.04 0.03 0.03 0.02 0.02 0.01 0.01 0.00 0.01 0.01 0.04 0.06 0.04 0.01 0.01 0.01 0.01 0.01 0.02 0.02 0.01 0.01 0.00 0.00 0.00 0.00 0.00 0.01 0.01 0.01 0.03 0.04 0.05 0.07 0.09 0.11 0.11
0.01 0.00 0.00 0.01 0.02 0.04 0.04 0.03 0.03 0.02 0.02 0.01 0.01 0.00 0.00 0.00 0.01 0.03 0.02 0.01 0.01 0.01 0.01 0.02 0.02 0.02 0.01 0.01 0.00 0.00 0.00 0.00 0.00 0.00 0.01 0.01 0.02 0.03 0.04 0.06 0.09 0.10 0.12
0.02 0.01 0.00 0.01 0.01 0.02 0.03 0.02 0.02 0.02 0.01 0.01 0.00 0.00 0.00 0.00 0.01 0.01 0.00 0.00 0.00 0.01 0.01 0.01 0.01 0.01 0.01 0.00 0.00 0.00 0.00 0.00 0.00 0.00 0.00 0.01 0.01 0.02 0.03 0.05 0.06 0.07 0.09
0.03 0.03 0.01 0.01 0.01 0.01 0.02 0.02 0.02 0.01 0.01 0.01 0.00 0.00 0.00 0.00 0.00 0.00 0.00 0.00 0.00 0.00 0.00 0.00 0.01 0.00 0.00 0.00 0.00 0.00 0.00 0.00 0.00 0.00 0.00 0.01 0.01 0.02 0.02 0.03 0.04 0.04 0.05
0.02 0.01 0.01 0.01 0.01 0.01 0.01 0.01 0.01 0.01 0.01 0.00 0.00 0.00 0.00 0.00 0.00 0.00 0.00 0.00 0.00 0.00 0.00 0.00 0.00 0.00 0.00 0.00 0.00 0.00 0.00 0.00 0.00 0.00 0.00 0.00 0.01 0.01 0.02 0.02 0.02 0.03 0.04
0.01 0.01 0.01 0.01 0.01 0.01 0.01 0.01 0.01 0.01 0.01 0.00 0.00 0.00 0.00 0.00 0.00 0.00 0.00 0.00 0.00 0.00 0.00 0.00 0.00 0.00 0.00 0.00 0.00 0.00 0.00 0.00 0.00 0.00 0.00 0.00 0.00 0.01 0.01 0.01 0.02 0.02 0.03
0.01 0.01 0.01 0.01 0.01 0.01 0.01 0.00 0.00 0.00 0.00 0.00 0.00 0.00 0.00 0.00 0.00 0.00 0.00 0.00 0.00 0.00 0.00 0.00 0.00 0.00 0.00 0.00 0.00 0.00 0.00 0.00 0.00 0.00 0.00 0.00 0.00 0.00 0.00 0.00 0.01 0.02 0.04
0.01 0.01 0.01 0.02 0.02 0.01 0.01 0.01 0.00 0.00 0.01 0.01 0.01 0.00 0.00 0.00 0.00 0.00 0.00 0.00 0.00 0.00 0.00 0.00 0.00 0.00 0.00 0.00 0.00 0.00 0.00 0.00 0.00 0.00 0.00 0.00 0.00 0.00 0.00 0.00 0.01 0.02 0.04
0.01 0.01 0.01 0.03 0.04 0.02 0.02 0.03 0.02 0.02 0.02 0.01 0.01 0.01 0.01 0.00 0.00 0.00 0.00 0.00 0.00 0.00 0.00 0.00 0.00 0.00 0.00 0.00 0.00 0.00 0.00 0.00 0.00 0.00 0.00 0.00 0.00 0.00 0.00 0.00 0.01 0.01 0.02
0.00 0.01 0.01 0.03 0.03 0.02 0.03 0.05 0.05 0.05 0.05 0.04 0.03 0.02 0.01 0.00 0.00 0.00 0.00 0.00 0.00 0.00 0.00 0.00 0.00 0.00 0.00 0.00 0.00 0.00 0.00 0.00 0.00 0.00 0.00 0.00 0.00 0.00 0.00 0.00 0.00 0.01 0.01
0.00 0.00 0.01 0.02 0.02 0.03 0.06 0.07 0.08 0.11 0.10 0.08 0.06 0.04 0.03 0.01 0.01 0.01 0.00 0.00 0.00 0.00 0.00 0.00 0.00 0.00 0.00 0.00 0.00 0.00 0.00 0.00 0.00 0.00 0.00 0.00 0.00 0.00 0.00 0.00 0.00 0.00 0.00
0.00 0.00 0.00 0.01 0.02 0.05 0.10 0.14 0.14 0.15 0.15 0.15 0.10 0.08 0.08 0.05 0.04 0.03 0.02 0.01 0.00 0.00 0.00 0.00 0.00 0.00 0.00 0.00 0.00 0.00 0.00 0.00 0.00 0.00 0.00 0.00 0.00 0.00 0.00 0.00 0.00 0.00 0.00
0.00 0.00 0.00 0.00 0.01 0.04 0.08 0.09 0.10 0.12 0.15 0.18 0.18 0.18 0.17 0.14 0.11 0.07 0.04 0.04 0.02 0.01 0.01 0.01 0.01 0.01 0.00 0.00 0.01 0.01 0.00 0.00 0.00 0.00 0.00 0.00 0.00 0.00 0.00 0.00 0.00 0.00 0.01
0.00 0.00 0.00 0.00 0.00 0.02 0.03 0.04 0.09 0.17 0.22 0.27 0.27 0.25 0.22 0.20 0.17 0.13 0.09 0.07 0.06 0.04 0.04 0.03 0.02 0.02 0.01 0.01 0.02 0.02 0.01 0.00 0.00 0.00 0.00 0.00 0.00 0.00 0.00 0.00 0.00 0.01 0.01
0.00 0.00 0.00 0.00 0.00 0.01 0.03 0.08 0.13 0.18 0.20 0.20 0.16 0.15 0.19 0.24 0.26 0.21 0.18 0.17 0.15 0.12 0.09 0.08 0.07 0.05 0.04 0.04 0.03 0.05 0.05 0.03 0.02 0.01 0.00 0.00 0.00 0.00 0.00 0.00 0.00 0.00 0.00
0.00 0.00 0.00 0.00 0.00 0.00 0.01 0.04 0.06 0.09 0.10 0.10 0.14 0.18 0.23 0.25 0.27 0.27 0.26 0.24 0.21 0.19 0.17 0.18 0.18 0.16 0.13 0.09 0.08 0.07 0.08 0.08 0.08 0.05 0.02 0.01 0.01 0.01 0.00 0.00 0.00 0.00 0.00
0.00 0.00 0.00 0.00 0.00 0.00 0.00 0.01 0.04 0.07 0.09 0.11 0.13 0.16 0.18 0.19 0.22 0.25 0.27 0.26 0.24 0.24 0.26 0.28 0.26 0.26 0.24 0.20 0.17 0.17 0.15 0.12 0.11 0.11 0.07 0.03 0.03 0.02 0.02 0.02 0.02 0.01 0.01
0.00 0.00 0.00 0.00 0.00 0.00 0.00 0.00 0.02 0.04 0.07 0.08 0.09 0.11 0.14 0.16 0.16 0.18 0.22 0.24 0.27 0.29 0.31 0.33 0.33 0.34 0.33 0.32 0.27 0.24 0.24 0.22 0.19 0.20 0.18 0.12 0.10 0.08 0.08 0.07 0.07 0.06 0.05

GEFSSE_prec_meanprecacc_072.txt.gz
Total_Precipitation_Accumulation
0.00 0.01 0.06 0.08 0.08 0.10 0.11 0.08 0.06 0.05 0.06 0.06 0.08 0.09 0.09 0.08 0.05 0.03 0.02 0.03 0.05 0.11 0.18 0.22 0.23 0.24 0.23 0.19 0.10 0.04 0.01 0.00 0.00 0.00 0.00 0.00 0.01 0.02 0.01 0.01 0.01 0.01 0.02
0.00 0.01 0.04 0.06 0.08 0.10 0.11 0.09 0.06 0.03 0.03 0.05 0.07 0.08 0.08 0.06 0.03 0.02 0.03 0.05 0.08 0.13 0.19 0.22 0.24 0.21 0.16 0.10 0.05 0.02 0.01 0.00 0.00 0.00 0.00 0.00 0.00 0.00 0.00 0.01 0.01 0.02 0.03
0.00 0.01 0.03 0.05 0.08 0.09 0.10 0.07 0.03 0.02 0.03 0.04 0.06 0.07 0.06 0.03 0.02 0.03 0.04 0.06 0.10 0.13 0.14 0.15 0.13 0.08 0.05 0.03 0.01 0.01 0.00 0.00 0.00 0.00 0.00 0.00 0.00 0.01 0.01 0.01 0.02 0.04 0.05
0.00 0.00 0.02 0.04 0.07 0.08 0.09 0.05 0.03 0.02 0.03 0.04 0.04 0.06 0.05 0.03 0.03 0.03 0.05 0.06 0.08 0.08 0.08 0.07 0.03 0.02 0.01 0.01 0.01 0.01 0.00 0.00 0.00 0.00 0.00 0.00 0.01 0.02 0.03 0.03 0.05 0.06 0.07
0.00 0.00 0.01 0.03 0.06 0.08 0.07 0.04 0.03 0.02 0.02 0.02 0.03 0.05 0.06 0.06 0.05 0.04 0.04 0.03 0.03 0.03 0.03 0.02 0.01 0.01 0.00 0.00 0.00 0.00 0.00 0.00 0.00 0.00 0.01 0.01 0.01 0.04 0.05 0.06 0.07 0.09 0.09
0.00 0.00 0.01 0.03 0.06 0.07 0.06 0.04 0.02 0.02 0.02 0.02 0.02 0.03 0.06 0.09 0.11 0.08 0.02 0.01 0.01 0.01 0.01 0.00 0.00 0.00 0.00 0.00 0.00 0.00 0.00 0.00 0.00 0.00 0.01 0.01 0.02 0.07 0.10 0.10 0.11 0.13 0.15
0.00 0.00 0.02 0.04 0.05 0.05 0.05 0.04 0.02 0.02 0.02 0.02 0.01 0.01 0.04 0.08 0.12 0.11 0.04 0.01 0.01 0.00 0.00 0.00 0.00 0.00 0.00 0.00 0.00 0.00 0.00 0.00 0.00 0.00 0.01 0.02 0.05 0.13 0.14 0.13 0.13 0.13 0.13
0.00 0.01 0.02 0.04 0.05 0.05 0.05 0.04 0.03 0.02 0.02 0.02 0.01 0.01 0.02 0.05 0.09 0.10 0.05 0.01 0.00 0.00 0.00 0.00 0.01 0.01 0.00 0.00 0.00 0.00 0.00 0.00 0.00 0.01 0.01 0.02 0.05 0.09 0.09 0.08 0.08 0.09 0.09
0.00 0.00 0.02 0.03 0.05 0.06 0.05 0.04 0.03 0.02 0.02 0.01 0.01 0.01 0.01 0.02 0.04 0.06 0.04 0.01 0.01 0.01 0.01 0.01 0.02 0.02 0.01 0.01 0.00 0.00 0.00 0.00 0.00 0.01 0.01 0.02 0.03 0.04 0.05 0.07 0.09 0.11 0.11
0.01 0.00 0.01 0.02 0.03 0.04 0.04 0.03 0.03 0.02 0.02 0.01 0.01 0.00 0.00 0.00 0.02 0.03 0.02 0.01 0.01 0.01 0.01 0.02 0.02 0.02 0.01 0.01 0.00 0.00 0.00 0.00 0.00 0.00 0.01 0.01 0.02 0.03 0.04 0.06 0.09 0.10 0.12
0.03 0.02 0.01 0.01 0.01 0.02 0.03 0.02 0.02 0.02 0.01 0.01 0.00 0.00 0.00 0.00 0.01 0.01 0.00 0.00 0.00 0.01 0.01 0.01 0.01 0.01 0.01 0.00 0.00 0.00 0.00 0.00 0.00 0.00 0.00 0.01 0.01 0.02 0.03 0.05 0.06 0.07 0.09
0.03 0.03 0.01 0.01 0.01 0.01 0.02 0.02 0.02 0.01 0.01 0.01 0.00 0.00 0.00 0.00 0.00 0.00 0.00 0.00 0.00 0.00 0.00 0.00 0.01 0.00 0.00 0.00 0.00 0.00 0.00 0.00 0.00 0.00 0.00 0.01 0.01 0.02 0.02 0.03 0.04 0.04 0.05
0.02 0.01 0.01 0.01 0.01 0.01 0.01 0.01 0.01 0.01 0.01 0.00 0.00 0.00 0.00 0.00 0.00 0.00 0.00 0.00 0.00 0.00 0.00 0.00 0.00 0.00 0.00 0.00 0.00 0.00 0.00 0.00 0.00 0.00 0.00 0.00 0.01 0.01 0.02 0.02 0.03 0.03 0.04
0.01 0.01 0.01 0.01 0.01 0.01 0.01 0.01 0.01 0.01 0.01 0.00 0.00 0.00 0.00 0.00 0.00 0.00 0.00 0.00 0.00 0.00 0.00 0.00 0.00 0.00 0.00 0.00 0.00 0.00 0.00 0.00 0.00 0.00 0.00 0.00 0.00 0.01 0.01 0.01 0.02 0.02 0.03
0.01 0.01 0.01 0.01 0.01 0.01 0.01 0.01 0.00 0.00 0.00 0.00 0.00 0.00 0.00 0.00 0.00 0.00 0.00 0.00 0.00 0.00 0.00 0.00 0.00 0.00 0.00 0.00 0.00 0.00 0.00 0.00 0.00 0.00 0.00 0.00 0.00 0.00 0.00 0.00 0.01 0.02 0.04
0.01 0.01 0.01 0.02 0.02 0.01 0.01 0.01 0.01 0.01 0.01 0.01 0.01 0.00 0.00 0.00 0.00 0.00 0.00 0.00 0.00 0.00 0.00 0.00 0.00 0.00 0.00 0.00 0.00 0.00 0.00 0.00 0.00 0.00 0.00 0.00 0.00 0.00 0.00 0.00 0.01 0.02 0.04
0.01 0.02 0.02 0.03 0.04 0.02 0.02 0.03 0.02 0.02 0.02 0.02 0.01 0.01 0.01 0.00 0.00 0.00 0.00 0.00 0.00 0.00 0.00 0.00 0.00 0.00 0.00 0.00 0.00 0.00 0.00 0.00 0.00 0.00 0.00 0.00 0.00 0.00 0.00 0.00 0.01 0.01 0.02
0.01 0.01 0.02 0.03 0.04 0.03 0.03 0.05 0.05 0.05 0.05 0.04 0.03 0.02 0.01 0.00 0.00 0.00 0.00 0.00 0.00 0.00 0.00 0.00 0.00 0.00 0.00 0.00 0.00 0.00 0.00 0.00 0.00 0.00 0.00 0.00 0.00 0.00 0.00 0.00 0.01 0.01 0.01
0.00 0.01 0.01 0.03 0.03 0.03 0.06 0.08 0.09 0.11 0.11 0.08 0.06 0.04 0.03 0.02 0.02 0.01 0.01 0.01 0.01 0.01 0.00 0.00 0.00 0.00 0.00 0.00 0.00 0.00 0.00 0.00 0.00 0.00 0.00 0.00 0.00 0.00 0.00 0.00 0.00 0.00 0.00
0.00 0.00 0.00 0.01 0.02 0.05 0.11 0.15 0.15 0.16 0.16 0.16 0.11 0.09 0.09 0.06 0.05 0.04 0.02 0.02 0.02 0.02 0.02 0.01 0.01 0.01 0.01 0.01 0.01 0.00 0.00 0.00 0.00 0.00 0.00 0.00 0.00 0.00 0.00 0.00 0.00 0.00 0.00
0.00 0.00 0.00 0.00 0.01 0.04 0.08 0.10 0.11 0.13 0.16 0.19 0.20 0.21 0.20 0.17 0.14 0.09 0.07 0.06 0.05 0.04 0.03 0.04 0.03 0.03 0.02 0.02 0.02 0.01 0.01 0.01 0.01 0.00 0.01 0.00 0.00 0.00 0.00 0.01 0.01 0.01 0.01
0.00 0.00 0.00 0.00 0.01 0.02 0.04 0.05 0.10 0.18 0.24 0.29 0.28 0.26 0.25 0.22 0.20 0.16 0.12 0.10 0.09 0.08 0.07 0.06 0.06 0.05 0.04 0.05 0.06 0.06 0.03 0.01 0.01 0.01 0.01 0.01 0.01 0.01 0.01 0.01 0.02 0.02 0.02
0.00 0.00 0.00 0.00 0.00 0.01 0.04 0.09 0.14 0.19 0.20 0.21 0.17 0.16 0.20 0.26 0.28 0.23 0.20 0.20 0.18 0.16 0.14 0.14 0.14 0.12 0.10 0.10 0.11 0.12 0.09 0.05 0.03 0.02 0.02 0.03 0.03 0.03 0.02 0.02 0.03 0.03 0.03
0.00 0.00 0.00 0.00 0.00 0.00 0.02 0.04 0.07 0.09 0.10 0.11 0.15 0.19 0.23 0.26 0.29 0.29 0.27 0.26 0.24 0.23 0.21 0.24 0.26 0.25 0.22 0.17 0.16 0.16 0.16 0.14 0.13 0.08 0.04 0.04 0.05 0.04 0.04 0.04 0.04 0.04 0.05
0.00 0.00 0.00 0.00 0.00 0.00 0.00 0.01 0.04 0.07 0.09 0.11 0.13 0.16 0.18 0.20 0.22 0.26 0.28 0.28 0.26 0.27 0.30 0.33 0.33 0.35 0.33 0.30 0.27 0.27 0.27 0.22 0.18 0.18 0.11 0.06 0.07 0.07 0.08 0.08 0.08 0.09 0.09
0.00 0.00 0.00 0.00 0.00 0.00 0.00 0.00 0.02 0.04 0.07 0.08 0.09 0.11 0.14 0.16 0.17 0.19 0.23 0.25 0.28 0.32 0.34 0.38 0.40 0.43 0.45 0.44 0.40 0.36 0.36 0.34 0.29 0.31 0.28 0.20 0.18 0.17 0.18 0.18 0.19 0.20 0.19

GEFSSE_prec_meanprecacc_078.txt.gz
Total_Precipitation_Accumulation
0.00 0.01 0.06 0.09 0.08 0.10 0.11 0.08 0.07 0.06 0.06 0.06 0.08 0.10 0.09 0.08 0.05 0.03 0.02 0.04 0.06 0.12 0.19 0.24 0.25 0.25 0.24 0.20 0.11 0.04 0.01 0.01 0.00 0.00 0.00 0.01 0.01 0.02 0.02 0.01 0.01 0.02 0.03
0.00 0.01 0.05 0.07 0.08 0.10 0.12 0.09 0.06 0.04 0.04 0.05 0.07 0.09 0.08 0.06 0.04 0.03 0.04 0.06 0.08 0.14 0.20 0.22 0.25 0.22 0.16 0.10 0.05 0.02 0.01 0.00 0.00 0.00 0.00 0.00 0.01 0.01 0.01 0.01 0.02 0.03 0.04
0.00 0.01 0.04 0.06 0.08 0.10 0.11 0.08 0.04 0.02 0.03 0.04 0.06 0.07 0.06 0.04 0.03 0.03 0.05 0.07 0.10 0.13 0.14 0.15 0.14 0.09 0.05 0.03 0.01 0.01 0.00 0.00 0.00 0.00 0.00 0.00 0.01 0.01 0.02 0.02 0.04 0.05 0.06
0.00 0.01 0.02 0.04 0.07 0.09 0.09 0.06 0.03 0.02 0.03 0.04 0.05 0.06 0.05 0.03 0.03 0.04 0.05 0.06 0.08 0.08 0.08 0.07 0.04 0.02 0.01 0.01 0.01 0.01 0.00 0.00 0.00 0.00 0.00 0.01 0.01 0.03 0.04 0.05 0.07 0.08 0.09
0.00 0.01 0.02 0.04 0.07 0.09 0.08 0.04 0.03 0.03 0.02 0.03 0.03 0.05 0.06 0.06 0.06 0.05 0.04 0.04 0.03 0.03 0.03 0.02 0.01 0.01 0.00 0.00 0.00 0.00 0.00 0.00 0.00 0.00 0.01 0.01 0.02 0.06 0.07 0.08 0.09 0.10 0.10
0.00 0.01 0.02 0.04 0.06 0.07 0.06 0.04 0.03 0.03 0.03 0.02 0.02 0.03 0.06 0.10 0.12 0.08 0.03 0.01 0.01 0.01 0.01 0.00 0.00 0.00 0.00 0.00 0.00 0.00 0.00 0.00 0.00 0.00 0.01 0.01 0.03 0.10 0.11 0.11 0.12 0.13 0.15
0.00 0.01 0.03 0.05 0.06 0.06 0.05 0.04 0.03 0.02 0.02 0.02 0.01 0.02 0.04 0.09 0.13 0.11 0.04 0.01 0.01 0.00 0.00 0.00 0.00 0.00 0.00 0.00 0.00 0.00 0.00 0.00 0.00 0.00 0.01 0.02 0.06 0.14 0.15 0.13 0.13 0.13 0.13
0.00 0.01 0.03 0.06 0.06 0.06 0.05 0.04 0.03 0.02 0.02 0.02 0.01 0.01 0.03 0.06 0.09 0.11 0.06 0.01 0.00 0.00 0.00 0.00 0.01 0.01 0.00 0.00 0.00 0.00 0.00 0.00 0.00 0.01 0.01 0.02 0.06 0.09 0.09 0.08 0.08 0.09 0.09
0.01 0.01 0.03 0.05 0.06 0.06 0.05 0.04 0.03 0.03 0.02 0.01 0.01 0.01 0.01 0.02 0.04 0.06 0.04 0.01 0.01 0.01 0.01 0.01 0.02 0.02 0.01 0.01 0.00 0.00 0.00 0.00 0.00 0.01 0.01 0.02 0.03 0.05 0.05 0.07 0.09 0.11 0.11
0.02 0.01 0.02 0.03 0.04 0.05 0.05 0.04 0.03 0.02 0.02 0.01 0.01 0.00 0.00 0.00 0.02 0.03 0.02 0.01 0.01 0.01 0.02 0.02 0.02 0.02 0.01 0.01 0.00 0.00 0.00 0.00 0.00 0.00 0.01 0.01 0.02 0.03 0.04 0.06 0.09 0.10 0.12
0.04 0.03 0.02 0.02 0.02 0.03 0.03 0.03 0.02 0.02 0.02 0.01 0.01 0.00 0.00 0.00 0.01 0.01 0.00 0.00 0.01 0.01 0.01 0.01 0.01 0.01 0.01 0.00 0.00 0.00 0.00 0.00 0.00 0.00 0.00 0.01 0.02 0.02 0.03 0.05 0.06 0.07 0.09
0.04 0.04 0.02 0.02 0.02 0.02 0.03 0.02 0.02 0.01 0.01 0.01 0.00 0.00 0.00 0.00 0.00 0.00 0.00 0.00 0.00 0.00 0.00 0.00 0.01 0.00 0.00 0.00 0.00 0.00 0.00 0.00 0.00 0.00 0.00 0.01 0.01 0.02 0.03 0.04 0.04 0.04 0.05
0.03 0.02 0.02 0.02 0.01 0.01 0.02 0.02 0.01 0.01 0.01 0.00 0.00 0.00 0.00 0.00 0.00 0.00 0.00 0.00 0.00 0.00 0.00 0.00 0.00 0.00 0.00 0.00 0.00 0.00 0.00 0.00 0.00 0.00 0.00 0.00 0.01 0.02 0.02 0.02 0.03 0.03 0.04
0.03 0.02 0.02 0.02 0.02 0.01 0.01 0.01 0.01 0.01 0.01 0.00 0.00 0.00 0.00 0.00 0.00 0.00 0.00 0.00 0.00 0.00 0.00 0.00 0.00 0.00 0.00 0.00 0.00 0.00 0.00 0.00 0.00 0.00 0.00 0.00 0.00 0.01 0.01 0.01 0.02 0.02 0.03
0.03 0.02 0.02 0.02 0.02 0.01 0.01 0.01 0.01 0.01 0.00 0.00 0.00 0.00 0.00 0.00 0.00 0.00 0.00 0.00 0.00 0.00 0.00 0.00 0.00 0.00 0.00 0.00 0.00 0.00 0.00 0.00 0.00 0.00 0.00 0.00 0.00 0.00 0.00 0.01 0.01 0.03 0.04
0.03 0.02 0.02 0.02 0.03 0.02 0.01 0.01 0.01 0.01 0.01 0.01 0.01 0.00 0.00 0.00 0.00 0.00 0.00 0.00 0.00 0.00 0.00 0.00 0.00 0.00 0.00 0.00 0.00 0.00 0.00 0.00 0.00 0.00 0.00 0.00 0.00 0.00 0.00 0.00 0.01 0.03 0.04
0.04 0.03 0.02 0.04 0.04 0.02 0.02 0.03 0.02 0.02 0.02 0.02 0.01 0.01 0.01 0.00 0.00 0.00 0.00 0.00 0.00 0.00 0.00 0.00 0.00 0.00 0.00 0.00 0.00 0.00 0.00 0.00 0.00 0.00 0.00 0.00 0.00 0.00 0.00 0.01 0.02 0.02 0.03
0.03 0.03 0.03 0.04 0.04 0.03 0.03 0.05 0.05 0.05 0.05 0.04 0.03 0.02 0.01 0.01 0.00 0.00 0.00 0.00 0.00 0.00 0.00 0.00 0.00 0.00 0.00 0.00 0.00 0.00 0.00 0.00 0.00 0.00 0.00 0.00 0.00 0.00 0.00 0.01 0.01 0.02 0.02
0.03 0.03 0.03 0.03 0.04 0.04 0.06 0.08 0.09 0.11 0.11 0.09 0.07 0.04 0.03 0.02 0.02 0.02 0.01 0.01 0.01 0.01 0.01 0.00 0.00 0.00 0.00 0.00 0.00 0.00 0.00 0.00 0.00 0.00 0.00 0.00 0.00 0.00 0.00 0.01 0.01 0.01 0.02
0.02 0.02 0.02 0.02 0.03 0.06 0.12 0.16 0.16 0.16 0.16 0.16 0.11 0.09 0.10 0.07 0.06 0.05 0.03 0.02 0.03 0.02 0.02 0.02 0.02 0.02 0.02 0.02 0.02 0.01 0.01 0.01 0.01 0.00 0.00 0.01 0.01 0.01 0.01 0.01 0.01 0.01 0.02
0.01 0.01 0.01 0.01 0.02 0.05 0.09 0.11 0.12 0.14 0.17 0.19 0.20 0.22 0.21 0.18 0.15 0.10 0.08 0.07 0.07 0.05 0.05 0.05 0.05 0.04 0.03 0.04 0.03 0.02 0.01 0.01 0.01 0.01 0.01 0.02 0.01 0.02 0.02 0.02 0.02 0.02 0.03
0.02 0.02 0.01 0.01 0.01 0.03 0.04 0.07 0.12 0.20 0.26 0.31 0.30 0.28 0.26 0.24 0.22 0.17 0.14 0.12 0.12 0.10 0.08 0.08 0.07 0.07 0.06 0.08 0.08 0.09 0.05 0.02 0.01 0.02 0.02 0.03 0.02 0.03 0.03 0.04 0.04 0.04 0.05
0.01 0.02 0.02 0.01 0.01 0.02 0.05 0.10 0.15 0.20 0.22 0.22 0.19 0.19 0.23 0.29 0.30 0.25 0.22 0.21 0.20 0.18 0.16 0.16 0.16 0.15 0.14 0.13 0.14 0.17 0.12 0.06 0.04 0.02 0.03 0.04 0.05 0.04 0.05 0.05 0.05 0.06 0.07
0.00 0.01 0.01 0.01 0.00 0.01 0.02 0.05 0.07 0.10 0.11 0.12 0.16 0.20 0.25 0.28 0.31 0.30 0.29 0.28 0.26 0.25 0.23 0.27 0.30 0.29 0.25 0.19 0.18 0.17 0.18 0.16 0.15 0.09 0.05 0.05 0.06 0.05 0.06 0.06 0.07 0.08 0.09
0.00 0.00 0.01 0.00 0.00 0.01 0.01 0.02 0.05 0.08 0.10 0.12 0.14 0.17 0.20 0.21 0.24 0.28 0.30 0.30 0.27 0.29 0.32 0.35 0.35 0.37 0.36 0.32 0.29 0.29 0.29 0.24 0.21 0.21 0.13 0.07 0.08 0.09 0.09 0.10 0.11 0.12 0.14
0.00 0.00 0.00 0.00 0.00 0.01 0.00 0.01 0.02 0.05 0.07 0.09 0.09 0.12 0.15 0.17 0.17 0.19 0.24 0.26 0.29 0.33 0.36 0.39 0.42 0.45 0.47 0.47 0.43 0.39 0.39 0.36 0.31 0.34 0.31 0.22 0.20 0.19 0.20 0.22 0.24 0.26 0.28

GEFSSE_prec_meanprecacc_084.txt.gz
Total_Precipitation_Accumulation
0.00 0.02 0.07 0.09 0.09 0.10 0.12 0.09 0.07 0.06 0.06 0.06 0.08 0.10 0.09 0.08 0.06 0.03 0.03 0.04 0.08 0.14 0.23 0.27 0.27 0.27 0.26 0.22 0.11 0.05 0.02 0.01 0.01 0.01 0.01 0.01 0.02 0.02 0.02 0.01 0.01 0.02 0.03
0.00 0.01 0.06 0.08 0.09 0.11 0.12 0.10 0.06 0.04 0.04 0.05 0.07 0.09 0.08 0.06 0.04 0.03 0.05 0.07 0.10 0.16 0.22 0.24 0.26 0.22 0.17 0.11 0.05 0.02 0.01 0.00 0.00 0.00 0.00 0.00 0.01 0.01 0.01 0.01 0.02 0.03 0.05
0.00 0.02 0.05 0.07 0.09 0.11 0.11 0.08 0.04 0.02 0.03 0.05 0.07 0.07 0.06 0.04 0.03 0.04 0.05 0.08 0.11 0.14 0.15 0.16 0.14 0.09 0.05 0.03 0.01 0.01 0.00 0.00 0.00 0.00 0.00 0.01 0.02 0.02 0.03 0.03 0.04 0.06 0.07
0.00 0.01 0.03 0.05 0.08 0.10 0.10 0.06 0.03 0.02 0.03 0.04 0.05 0.07 0.05 0.04 0.03 0.04 0.05 0.06 0.08 0.08 0.09 0.07 0.04 0.02 0.01 0.01 0.01 0.01 0.00 0.00 0.00 0.00 0.00 0.01 0.02 0.05 0.06 0.07 0.08 0.09 0.09
0.00 0.01 0.03 0.05 0.08 0.10 0.08 0.05 0.03 0.03 0.03 0.03 0.04 0.05 0.06 0.07 0.07 0.05 0.04 0.04 0.03 0.03 0.03 0.02 0.01 0.01 0.00 0.00 0.00 0.00 0.00 0.00 0.00 0.00 0.01 0.02 0.04 0.08 0.09 0.09 0.10 0.10 0.10
0.00 0.01 0.04 0.06 0.08 0.08 0.06 0.04 0.03 0.03 0.03 0.03 0.03 0.03 0.07 0.11 0.13 0.08 0.03 0.01 0.01 0.01 0.01 0.01 0.00 0.00 0.00 0.00 0.00 0.00 0.00 0.00 0.00 0.00 0.01 0.02 0.04 0.11 0.12 0.11 0.12 0.13 0.15
0.01 0.02 0.05 0.06 0.07 0.07 0.06 0.04 0.03 0.03 0.02 0.02 0.02 0.02 0.05 0.09 0.13 0.11 0.04 0.01 0.01 0.00 0.00 0.00 0.00 0.00 0.00 0.00 0.00 0.00 0.00 0.00 0.00 0.00 0.01 0.02 0.07 0.15 0.16 0.13 0.14 0.13 0.13
0.01 0.02 0.06 0.08 0.07 0.06 0.05 0.04 0.03 0.03 0.02 0.02 0.01 0.02 0.04 0.06 0.09 0.11 0.06 0.01 0.00 0.00 0.00 0.00 0.01 0.01 0.00 0.00 0.00 0.00 0.00 0.00 0.00 0.01 0.01 0.03 0.06 0.10 0.09 0.08 0.08 0.09 0.10
0.01 0.03 0.05 0.07 0.08 0.07 0.05 0.04 0.04 0.03 0.02 0.02 0.01 0.01 0.02 0.02 0.04 0.06 0.04 0.01 0.01 0.01 0.01 0.01 0.02 0.02 0.01 0.01 0.00 0.00 0.00 0.00 0.00 0.01 0.01 0.02 0.04 0.05 0.06 0.07 0.09 0.11 0.11
0.04 0.03 0.04 0.05 0.06 0.07 0.06 0.04 0.03 0.03 0.02 0.01 0.01 0.01 0.01 0.01 0.02 0.03 0.02 0.01 0.01 0.01 0.02 0.02 0.02 0.02 0.01 0.01 0.00 0.00 0.00 0.00 0.00 0.00 0.01 0.01 0.03 0.03 0.04 0.07 0.09 0.11 0.12
0.07 0.05 0.04 0.04 0.05 0.05 0.05 0.03 0.03 0.02 0.02 0.01 0.01 0.00 0.00 0.00 0.01 0.01 0.01 0.00 0.01 0.01 0.01 0.01 0.01 0.01 0.01 0.00 0.00 0.00 0.00 0.00 0.00 0.00 0.01 0.01 0.02 0.03 0.03 0.05 0.07 0.08 0.09
0.06 0.06 0.04 0.04 0.04 0.04 0.04 0.03 0.02 0.02 0.01 0.01 0.00 0.00 0.00 0.00 0.00 0.00 0.00 0.00 0.00 0.00 0.00 0.01 0.01 0.00 0.00 0.00 0.00 0.00 0.00 0.00 0.00 0.00 0.00 0.01 0.01 0.02 0.03 0.04 0.04 0.05 0.05
0.04 0.04 0.03 0.03 0.03 0.03 0.03 0.03 0.02 0.01 0.01 0.01 0.00 0.00 0.00 0.00 0.00 0.00 0.00 0.00 0.00 0.00 0.00 0.00 0.00 0.00 0.00 0.00 0.00 0.00 0.00 0.00 0.00 0.00 0.00 0.00 0.01 0.02 0.03 0.03 0.03 0.03 0.04
0.04 0.03 0.03 0.03 0.03 0.04 0.03 0.02 0.02 0.01 0.01 0.00 0.00 0.00 0.00 0.00 0.00 0.00 0.00 0.00 0.00 0.00 0.00 0.00 0.00 0.00 0.00 0.00 0.00 0.00 0.00 0.00 0.00 0.00 0.00 0.00 0.00 0.01 0.02 0.02 0.02 0.03 0.04
0.06 0.04 0.03 0.03 0.03 0.03 0.03 0.02 0.01 0.01 0.01 0.00 0.00 0.00 0.00 0.00 0.00 0.00 0.00 0.00 0.00 0.00 0.00 0.00 0.00 0.00 0.00 0.00 0.00 0.00 0.00 0.00 0.00 0.00 0.00 0.00 0.00 0.00 0.01 0.01 0.02 0.03 0.05
0.07 0.06 0.05 0.04 0.04 0.03 0.02 0.02 0.02 0.01 0.01 0.01 0.01 0.00 0.00 0.00 0.00 0.00 0.00 0.00 0.00 0.00 0.00 0.00 0.00 0.00 0.00 0.00 0.00 0.00 0.00 0.00 0.00 0.00 0.00 0.00 0.00 0.00 0.00 0.01 0.02 0.04 0.06
0.11 0.08 0.06 0.07 0.07 0.04 0.03 0.04 0.03 0.03 0.03 0.02 0.01 0.01 0.01 0.00 0.00 0.00 0.00 0.00 0.00 0.00 0.00 0.00 0.00 0.00 0.00 0.00 0.00 0.00 0.00 0.00 0.00 0.00 0.00 0.00 0.00 0.00 0.00 0.01 0.02 0.03 0.05
0.11 0.10 0.08 0.07 0.07 0.06 0.05 0.07 0.06 0.06 0.06 0.04 0.03 0.02 0.01 0.01 0.00 0.00 0.00 0.00 0.00 0.00 0.00 0.00 0.00 0.00 0.00 0.00 0.00 0.00 0.00 0.00 0.00 0.00 0.00 0.00 0.00 0.00 0.00 0.01 0.02 0.03 0.04
0.10 0.11 0.09 0.08 0.08 0.09 0.10 0.11 0.11 0.13 0.12 0.09 0.07 0.04 0.03 0.02 0.02 0.02 0.01 0.01 0.01 0.01 0.01 0.01 0.01 0.01 0.01 0.01 0.00 0.00 0.01 0.01 0.00 0.00 0.00 0.00 0.00 0.00 0.01 0.01 0.01 0.02 0.03
0.08 0.10 0.10 0.10 0.11 0.13 0.18 0.20 0.19 0.17 0.17 0.17 0.12 0.10 0.10 0.07 0.07 0.05 0.03 0.03 0.03 0.03 0.03 0.03 0.02 0.02 0.02 0.02 0.02 0.01 0.01 0.01 0.01 0.01 0.01 0.01 0.01 0.01 0.01 0.01 0.02 0.02 0.02
0.05 0.06 0.07 0.08 0.09 0.12 0.15 0.16 0.15 0.16 0.19 0.21 0.22 0.23 0.22 0.18 0.16 0.11 0.08 0.08 0.08 0.06 0.05 0.05 0.05 0.04 0.03 0.04 0.04 0.03 0.01 0.01 0.01 0.01 0.02 0.02 0.02 0.02 0.02 0.03 0.03 0.03 0.03
0.04 0.05 0.06 0.07 0.08 0.09 0.10 0.12 0.17 0.24 0.29 0.33 0.32 0.30 0.28 0.26 0.24 0.19 0.15 0.13 0.12 0.11 0.09 0.08 0.08 0.08 0.07 0.08 0.09 0.10 0.06 0.02 0.01 0.02 0.02 0.03 0.03 0.03 0.03 0.04 0.04 0.05 0.05
0.02 0.04 0.05 0.06 0.07 0.08 0.11 0.16 0.21 0.25 0.25 0.24 0.21 0.20 0.25 0.30 0.31 0.26 0.23 0.22 0.21 0.19 0.17 0.17 0.17 0.16 0.15 0.14 0.15 0.18 0.14 0.07 0.04 0.03 0.03 0.04 0.05 0.04 0.05 0.05 0.06 0.06 0.07
0.01 0.02 0.03 0.03 0.03 0.04 0.07 0.10 0.13 0.15 0.14 0.14 0.18 0.22 0.27 0.29 0.31 0.31 0.30 0.29 0.27 0.26 0.24 0.28 0.32 0.31 0.27 0.20 0.19 0.18 0.20 0.18 0.17 0.11 0.05 0.05 0.06 0.05 0.06 0.06 0.07 0.08 0.09
0.01 0.01 0.01 0.02 0.02 0.03 0.03 0.04 0.08 0.11 0.12 0.14 0.15 0.18 0.21 0.22 0.24 0.28 0.31 0.31 0.28 0.30 0.33 0.37 0.37 0.39 0.37 0.33 0.30 0.30 0.30 0.26 0.23 0.23 0.14 0.08 0.08 0.09 0.09 0.10 0.11 0.13 0.15
0.00 0.00 0.01 0.01 0.01 0.02 0.02 0.02 0.04 0.06 0.09 0.10 0.10 0.12 0.15 0.17 0.17 0.20 0.24 0.27 0.30 0.33 0.36 0.40 0.42 0.46 0.47 0.47 0.44 0.40 0.40 0.37 0.32 0.35 0.33 0.23 0.21 0.19 0.20 0.22 0.24 0.26 0.28

GEFSSE_prec_meanprecacc_090.txt.gz
Total_Precipitation_Accumulation
0.00 0.02 0.08 0.10 0.09 0.11 0.12 0.10 0.08 0.06 0.06 0.07 0.08 0.10 0.10 0.09 0.06 0.04 0.04 0.07 0.13 0.21 0.28 0.32 0.31 0.30 0.27 0.22 0.12 0.05 0.02 0.01 0.01 0.01 0.01 0.01 0.02 0.02 0.02 0.02 0.02 0.03 0.04
0.00 0.02 0.06 0.08 0.10 0.12 0.14 0.10 0.06 0.04 0.04 0.06 0.08 0.10 0.09 0.07 0.05 0.05 0.07 0.12 0.16 0.21 0.26 0.27 0.28 0.23 0.17 0.11 0.05 0.02 0.01 0.00 0.00 0.00 0.00 0.00 0.01 0.01 0.01 0.02 0.03 0.04 0.06
0.00 0.02 0.05 0.07 0.10 0.12 0.12 0.08 0.04 0.02 0.03 0.05 0.07 0.08 0.07 0.04 0.04 0.06 0.08 0.11 0.14 0.17 0.17 0.17 0.14 0.09 0.05 0.03 0.02 0.01 0.00 0.00 0.00 0.00 0.01 0.02 0.02 0.03 0.03 0.03 0.05 0.07 0.08
0.00 0.01 0.04 0.06 0.09 0.11 0.10 0.06 0.03 0.03 0.03 0.04 0.06 0.07 0.06 0.04 0.04 0.05 0.06 0.07 0.09 0.09 0.09 0.07 0.04 0.02 0.01 0.01 0.01 0.01 0.00 0.00 0.00 0.00 0.01 0.02 0.03 0.05 0.07 0.07 0.08 0.09 0.09
0.00 0.01 0.04 0.06 0.09 0.10 0.08 0.05 0.03 0.03 0.03 0.04 0.04 0.06 0.07 0.07 0.07 0.06 0.04 0.04 0.03 0.03 0.03 0.02 0.01 0.01 0.00 0.00 0.00 0.00 0.00 0.00 0.00 0.01 0.02 0.04 0.04 0.08 0.09 0.09 0.10 0.11 0.10
0.00 0.02 0.04 0.06 0.09 0.09 0.07 0.04 0.03 0.03 0.03 0.03 0.04 0.04 0.08 0.11 0.13 0.08 0.03 0.01 0.01 0.01 0.01 0.01 0.01 0.00 0.00 0.00 0.00 0.00 0.00 0.00 0.00 0.01 0.02 0.03 0.05 0.12 0.13 0.12 0.12 0.14 0.15
0.01 0.02 0.05 0.08 0.08 0.07 0.06 0.04 0.03 0.03 0.03 0.03 0.02 0.03 0.06 0.10 0.13 0.11 0.04 0.01 0.01 0.00 0.00 0.00 0.00 0.00 0.00 0.00 0.00 0.00 0.00 0.00 0.00 0.01 0.02 0.03 0.07 0.15 0.16 0.14 0.14 0.13 0.13
0.01 0.03 0.06 0.09 0.09 0.07 0.06 0.05 0.04 0.03 0.03 0.02 0.02 0.03 0.04 0.07 0.10 0.11 0.06 0.01 0.01 0.00 0.00 0.01 0.01 0.01 0.01 0.00 0.00 0.00 0.00 0.00 0.00 0.01 0.02 0.03 0.06 0.10 0.09 0.08 0.08 0.09 0.10
0.02 0.03 0.06 0.09 0.09 0.08 0.06 0.04 0.04 0.03 0.02 0.02 0.01 0.02 0.02 0.02 0.04 0.07 0.04 0.01 0.01 0.01 0.01 0.01 0.02 0.02 0.01 0.01 0.00 0.00 0.00 0.00 0.00 0.01 0.01 0.02 0.04 0.05 0.06 0.07 0.09 0.11 0.11
0.04 0.04 0.06 0.07 0.07 0.07 0.06 0.04 0.04 0.03 0.02 0.02 0.01 0.01 0.01 0.01 0.02 0.03 0.02 0.01 0.01 0.01 0.02 0.02 0.02 0.02 0.01 0.01 0.00 0.00 0.00 0.00 0.00 0.00 0.01 0.01 0.03 0.03 0.04 0.07 0.09 0.11 0.12
0.08 0.07 0.06 0.07 0.06 0.06 0.05 0.03 0.03 0.02 0.02 0.01 0.01 0.00 0.00 0.01 0.01 0.01 0.01 0.00 0.01 0.01 0.01 0.01 0.01 0.01 0.01 0.00 0.00 0.00 0.00 0.00 0.00 0.00 0.01 0.01 0.02 0.03 0.03 0.05 0.07 0.08 0.09
0.08 0.08 0.06 0.07 0.08 0.07 0.05 0.04 0.03 0.02 0.01 0.01 0.01 0.00 0.00 0.00 0.00 0.00 0.00 0.00 0.00 0.01 0.00 0.01 0.01 0.00 0.00 0.00 0.00 0.00 0.00 0.00 0.00 0.00 0.00 0.01 0.01 0.02 0.03 0.04 0.04 0.05 0.05
0.07 0.06 0.05 0.07 0.09 0.08 0.06 0.04 0.03 0.02 0.01 0.01 0.00 0.00 0.00 0.00 0.00 0.00 0.00 0.00 0.00 0.00 0.00 0.00 0.00 0.00 0.00 0.00 0.00 0.00 0.00 0.00 0.00 0.00 0.00 0.00 0.01 0.02 0.03 0.03 0.03 0.03 0.04
0.08 0.06 0.05 0.06 0.08 0.10 0.08 0.05 0.03 0.02 0.01 0.01 0.00 0.00 0.00 0.00 0.00 0.00 0.00 0.00 0.00 0.00 0.00 0.00 0.00 0.00 0.00 0.00 0.00 0.00 0.00 0.00 0.00 0.00 0.00 0.00 0.00 0.01 0.02 0.02 0.02 0.03 0.04
0.10 0.08 0.08 0.09 0.08 0.08 0.10 0.08 0.04 0.03 0.01 0.01 0.01 0.00 0.00 0.00 0.00 0.00 0.00 0.00 0.00 0.00 0.00 0.00 0.00 0.00 0.00 0.00 0.00 0.00 0.00 0.00 0.00 0.00 0.00 0.00 0.00 0.00 0.01 0.01 0.02 0.03 0.06
0.11 0.10 0.10 0.10 0.10 0.08 0.08 0.07 0.05 0.03 0.02 0.01 0.01 0.01 0.00 0.00 0.00 0.00 0.00 0.00 0.00 0.00 0.00 0.00 0.00 0.00 0.00 0.00 0.00 0.00 0.00 0.00 0.00 0.00 0.00 0.00 0.00 0.00 0.00 0.01 0.02 0.04 0.07
0.16 0.12 0.10 0.11 0.12 0.10 0.10 0.10 0.07 0.06 0.04 0.03 0.02 0.01 0.01 0.01 0.00 0.00 0.00 0.00 0.00 0.00 0.00 0.00 0.00 0.00 0.00 0.00 0.00 0.00 0.00 0.00 0.00 0.00 0.00 0.00 0.00 0.00 0.00 0.01 0.02 0.04 0.05
0.16 0.14 0.12 0.10 0.11 0.12 0.14 0.15 0.12 0.10 0.09 0.07 0.05 0.03 0.02 0.01 0.01 0.00 0.01 0.01 0.01 0.01 0.01 0.01 0.01 0.01 0.00 0.00 0.00 0.00 0.00 0.00 0.00 0.00 0.00 0.00 0.00 0.00 0.00 0.01 0.02 0.03 0.05
0.14 0.15 0.14 0.11 0.12 0.16 0.20 0.20 0.20 0.20 0.17 0.14 0.10 0.06 0.04 0.02 0.02 0.02 0.02 0.02 0.03 0.03 0.02 0.02 0.02 0.02 0.01 0.01 0.01 0.01 0.01 0.01 0.01 0.00 0.00 0.00 0.01 0.01 0.01 0.01 0.01 0.02 0.03
0.12 0.14 0.14 0.15 0.17 0.20 0.27 0.29 0.28 0.27 0.25 0.24 0.17 0.13 0.12 0.09 0.08 0.06 0.04 0.05 0.06 0.05 0.05 0.05 0.04 0.04 0.03 0.04 0.04 0.02 0.01 0.01 0.01 0.01 0.01 0.01 0.01 0.01 0.01 0.01 0.02 0.02 0.02
0.07 0.09 0.11 0.13 0.14 0.18 0.23 0.24 0.23 0.24 0.27 0.29 0.29 0.28 0.26 0.22 0.19 0.13 0.11 0.11 0.10 0.08 0.08 0.08 0.08 0.07 0.05 0.05 0.05 0.03 0.01 0.01 0.01 0.01 0.02 0.02 0.02 0.02 0.02 0.03 0.03 0.03 0.03
0.06 0.07 0.09 0.10 0.12 0.13 0.15 0.19 0.27 0.34 0.38 0.42 0.39 0.35 0.32 0.30 0.27 0.21 0.18 0.16 0.14 0.12 0.11 0.11 0.11 0.09 0.08 0.09 0.10 0.11 0.06 0.02 0.01 0.02 0.02 0.03 0.03 0.03 0.03 0.04 0.05 0.05 0.05
0.04 0.06 0.07 0.08 0.09 0.11 0.15 0.22 0.28 0.32 0.31 0.30 0.27 0.25 0.29 0.33 0.33 0.28 0.25 0.24 0.23 0.22 0.19 0.18 0.19 0.17 0.16 0.16 0.17 0.21 0.16 0.07 0.04 0.03 0.03 0.04 0.05 0.04 0.05 0.05 0.06 0.06 0.07
0.03 0.05 0.07 0.08 0.07 0.08 0.10 0.13 0.18 0.20 0.20 0.21 0.25 0.29 0.34 0.34 0.34 0.34 0.33 0.31 0.29 0.29 0.26 0.30 0.34 0.33 0.30 0.23 0.21 0.20 0.22 0.20 0.19 0.12 0.06 0.06 0.06 0.06 0.06 0.06 0.07 0.08 0.09
0.02 0.03 0.05 0.05 0.05 0.06 0.06 0.07 0.10 0.14 0.17 0.19 0.21 0.24 0.26 0.25 0.27 0.30 0.33 0.32 0.30 0.31 0.34 0.38 0.39 0.41 0.39 0.35 0.33 0.32 0.32 0.27 0.25 0.25 0.16 0.08 0.09 0.09 0.10 0.10 0.11 0.13 0.15
0.01 0.02 0.02 0.03 0.05 0.05 0.05 0.05 0.06 0.08 0.11 0.13 0.13 0.15 0.18 0.19 0.19 0.21 0.26 0.28 0.31 0.34 0.37 0.40 0.43 0.47 0.49 0.49 0.46 0.42 0.42 0.39 0.33 0.37 0.34 0.24 0.22 0.20 0.20 0.22 0.24 0.26 0.28

GEFSSE_prec_meanprecacc_096.txt.gz
Total_Precipitation_Accumulation
0.00 0.02 0.08 0.10 0.10 0.11 0.13 0.10 0.08 0.07 0.07 0.07 0.09 0.11 0.10 0.10 0.07 0.05 0.06 0.10 0.17 0.25 0.31 0.34 0.32 0.30 0.27 0.22 0.12 0.05 0.02 0.01 0.01 0.01 0.01 0.02 0.03 0.03 0.03 0.02 0.02 0.03 0.05
0.00 0.02 0.06 0.09 0.10 0.13 0.14 0.11 0.07 0.04 0.04 0.06 0.09 0.10 0.10 0.08 0.06 0.07 0.11 0.16 0.20 0.24 0.28 0.28 0.28 0.23 0.17 0.11 0.05 0.02 0.01 0.00 0.00 0.00 0.00 0.01 0.01 0.02 0.02 0.02 0.03 0.05 0.07
0.00 0.02 0.05 0.08 0.10 0.13 0.12 0.08 0.04 0.03 0.03 0.05 0.08 0.08 0.08 0.06 0.07 0.09 0.12 0.15 0.17 0.20 0.18 0.17 0.15 0.09 0.05 0.03 0.02 0.01 0.01 0.01 0.00 0.00 0.01 0.02 0.02 0.03 0.04 0.04 0.06 0.08 0.09
0.00 0.02 0.04 0.06 0.10 0.11 0.10 0.06 0.03 0.03 0.04 0.05 0.06 0.08 0.07 0.06 0.06 0.07 0.08 0.09 0.11 0.10 0.09 0.08 0.04 0.02 0.01 0.01 0.01 0.01 0.00 0.00 0.00 0.00 0.01 0.02 0.03 0.05 0.07 0.07 0.08 0.10 0.10
0.00 0.01 0.04 0.06 0.10 0.10 0.08 0.05 0.03 0.03 0.03 0.04 0.05 0.06 0.08 0.09 0.08 0.07 0.05 0.04 0.04 0.04 0.03 0.02 0.01 0.01 0.01 0.00 0.00 0.00 0.00 0.00 0.00 0.01 0.02 0.04 0.04 0.09 0.10 0.10 0.10 0.11 0.11
0.00 0.02 0.05 0.07 0.09 0.09 0.07 0.04 0.04 0.03 0.04 0.03 0.04 0.04 0.08 0.11 0.13 0.09 0.03 0.02 0.01 0.01 0.01 0.01 0.01 0.00 0.00 0.00 0.00 0.00 0.00 0.00 0.00 0.01 0.02 0.03 0.05 0.12 0.13 0.12 0.12 0.14 0.16
0.01 0.02 0.06 0.08 0.09 0.07 0.06 0.05 0.04 0.03 0.03 0.03 0.03 0.04 0.06 0.10 0.14 0.11 0.04 0.01 0.01 0.00 0.01 0.00 0.01 0.00 0.00 0.00 0.00 0.00 0.00 0.00 0.00 0.01 0.02 0.03 0.07 0.15 0.16 0.14 0.14 0.14 0.13
0.01 0.03 0.07 0.10 0.09 0.07 0.06 0.05 0.04 0.03 0.03 0.03 0.02 0.03 0.05 0.07 0.10 0.11 0.06 0.01 0.01 0.00 0.01 0.01 0.01 0.01 0.01 0.00 0.00 0.00 0.00 0.00 0.00 0.01 0.02 0.03 0.06 0.10 0.10 0.09 0.08 0.09 0.10
0.02 0.04 0.07 0.09 0.10 0.08 0.06 0.05 0.04 0.03 0.03 0.02 0.02 0.02 0.02 0.02 0.04 0.07 0.04 0.02 0.01 0.01 0.01 0.01 0.02 0.02 0.01 0.01 0.00 0.00 0.00 0.00 0.00 0.01 0.01 0.02 0.04 0.05 0.06 0.07 0.09 0.11 0.12
0.05 0.05 0.06 0.07 0.08 0.08 0.06 0.05 0.04 0.03 0.02 0.02 0.01 0.01 0.01 0.01 0.02 0.03 0.02 0.01 0.01 0.01 0.02 0.02 0.02 0.02 0.01 0.01 0.00 0.00 0.00 0.00 0.00 0.00 0.01 0.01 0.03 0.03 0.05 0.07 0.09 0.11 0.12
0.09 0.08 0.07 0.07 0.06 0.06 0.05 0.04 0.03 0.03 0.02 0.01 0.01 0.00 0.00 0.01 0.01 0.01 0.01 0.00 0.01 0.01 0.01 0.01 0.01 0.01 0.01 0.00 0.00 0.00 0.00 0.00 0.00 0.00 0.01 0.01 0.02 0.03 0.03 0.05 0.07 0.08 0.09
0.10 0.09 0.07 0.08 0.08 0.07 0.05 0.04 0.03 0.02 0.01 0.01 0.01 0.00 0.00 0.00 0.00 0.00 0.00 0.00 0.00 0.01 0.00 0.01 0.01 0.00 0.00 0.00 0.00 0.00 0.00 0.00 0.00 0.00 0.00 0.01 0.01 0.02 0.03 0.04 0.04 0.05 0.05
0.12 0.08 0.07 0.08 0.09 0.09 0.06 0.04 0.03 0.02 0.01 0.01 0.00 0.00 0.00 0.00 0.00 0.00 0.00 0.00 0.00 0.00 0.00 0.00 0.00 0.00 0.00 0.00 0.00 0.00 0.00 0.00 0.00 0.00 0.00 0.00 0.01 0.02 0.03 0.03 0.03 0.03 0.04
0.17 0.12 0.08 0.08 0.09 0.11 0.09 0.06 0.04 0.02 0.01 0.01 0.00 0.00 0.00 0.00 0.00 0.00 0.00 0.00 0.00 0.00 0.00 0.00 0.00 0.00 0.00 0.00 0.00 0.00 0.00 0.00 0.00 0.00 0.00 0.00 0.00 0.01 0.02 0.02 0.02 0.03 0.04
0.20 0.16 0.13 0.12 0.10 0.10 0.12 0.09 0.06 0.04 0.02 0.01 0.01 0.00 0.00 0.00 0.00 0.00 0.00 0.00 0.00 0.00 0.00 0.00 0.00 0.00 0.00 0.00 0.00 0.00 0.00 0.00 0.00 0.00 0.00 0.00 0.00 0.00 0.01 0.01 0.02 0.04 0.06
0.20 0.19 0.17 0.15 0.13 0.10 0.10 0.09 0.07 0.04 0.03 0.02 0.01 0.01 0.00 0.00 0.00 0.00 0.00 0.00 0.00 0.00 0.00 0.00 0.00 0.00 0.00 0.00 0.00 0.00 0.00 0.00 0.00 0.00 0.00 0.00 0.00 0.00 0.00 0.01 0.02 0.05 0.08
0.27 0.25 0.22 0.19 0.17 0.13 0.12 0.12 0.09 0.07 0.05 0.04 0.03 0.02 0.01 0.01 0.00 0.00 0.00 0.00 0.00 0.00 0.00 0.00 0.00 0.00 0.00 0.00 0.00 0.00 0.00 0.00 0.00 0.00 0.00 0.00 0.00 0.00 0.00 0.01 0.03 0.05 0.08
0.26 0.27 0.24 0.20 0.19 0.19 0.19 0.19 0.15 0.13 0.12 0.09 0.08 0.05 0.03 0.01 0.01 0.01 0.01 0.01 0.01 0.01 0.01 0.01 0.01 0.01 0.00 0.01 0.00 0.01 0.01 0.00 0.00 0.00 0.00 0.00 0.00 0.00 0.00 0.01 0.02 0.04 0.06
0.22 0.25 0.25 0.22 0.21 0.25 0.28 0.26 0.25 0.25 0.22 0.18 0.14 0.09 0.06 0.03 0.03 0.03 0.02 0.02 0.03 0.03 0.03 0.03 0.02 0.02 0.02 0.01 0.01 0.01 0.01 0.01 0.01 0.01 0.00 0.00 0.01 0.01 0.01 0.01 0.02 0.02 0.04
0.17 0.22 0.24 0.27 0.30 0.33 0.38 0.37 0.36 0.36 0.32 0.30 0.23 0.19 0.17 0.11 0.09 0.07 0.06 0.06 0.06 0.06 0.06 0.06 0.05 0.04 0.04 0.04 0.04 0.02 0.01 0.01 0.01 0.01 0.01 0.01 0.01 0.01 0.01 0.02 0.02 0.02 0.02
0.12 0.16 0.19 0.21 0.26 0.30 0.32 0.31 0.29 0.31 0.35 0.37 0.37 0.36 0.31 0.26 0.22 0.15 0.13 0.13 0.12 0.10 0.09 0.09 0.09 0.07 0.06 0.06 0.05 0.03 0.01 0.01 0.01 0.01 0.02 0.02 0.02 0.02 0.02 0.03 0.03 0.03 0.04
0.10 0.11 0.14 0.16 0.20 0.22 0.24 0.28 0.34 0.42 0.46 0.49 0.47 0.42 0.38 0.35 0.31 0.25 0.21 0.19 0.16 0.14 0.13 0.12 0.13 0.11 0.09 0.10 0.11 0.12 0.06 0.02 0.01 0.02 0.02 0.03 0.03 0.03 0.03 0.04 0.05 0.05 0.05
0.08 0.09 0.10 0.13 0.16 0.17 0.23 0.32 0.39 0.42 0.40 0.36 0.32 0.30 0.34 0.39 0.40 0.34 0.30 0.28 0.26 0.25 0.21 0.21 0.21 0.20 0.18 0.18 0.18 0.22 0.17 0.08 0.04 0.03 0.03 0.04 0.05 0.04 0.05 0.05 0.06 0.06 0.07
0.05 0.08 0.10 0.12 0.12 0.14 0.17 0.20 0.24 0.26 0.26 0.27 0.32 0.37 0.42 0.41 0.42 0.42 0.40 0.38 0.35 0.34 0.31 0.33 0.37 0.36 0.32 0.25 0.23 0.22 0.24 0.22 0.21 0.13 0.06 0.06 0.06 0.06 0.06 0.06 0.07 0.08 0.09
0.04 0.06 0.08 0.09 0.11 0.13 0.14 0.15 0.18 0.21 0.25 0.28 0.30 0.33 0.35 0.35 0.37 0.39 0.40 0.37 0.33 0.34 0.37 0.40 0.41 0.43 0.41 0.37 0.35 0.34 0.34 0.29 0.27 0.27 0.16 0.08 0.09 0.09 0.10 0.10 0.11 0.13 0.15
0.03 0.04 0.05 0.07 0.11 0.14 0.15 0.15 0.16 0.17 0.20 0.21 0.22 0.24 0.27 0.27 0.27 0.28 0.33 0.34 0.35 0.37 0.40 0.43 0.46 0.49 0.51 0.51 0.48 0.43 0.44 0.40 0.35 0.38 0.36 0.25 0.22 0.20 0.20 0.22 0.24 0.27 0.28

GEFSSE_prec_meanprecacc_102.txt.gz
Total_Precipitation_Accumulation
0.01 0.03 0.11 0.11 0.11 0.12 0.13 0.10 0.08 0.07 0.07 0.08 0.10 0.12 0.12 0.11 0.09 0.08 0.09 0.12 0.19 0.27 0.33 0.35 0.33 0.31 0.28 0.23 0.12 0.05 0.02 0.01 0.01 0.01 0.01 0.02 0.03 0.04 0.03 0.02 0.03 0.04 0.06
0.01 0.03 0.08 0.09 0.11 0.13 0.14 0.11 0.07 0.05 0.05 0.07 0.10 0.11 0.11 0.10 0.09 0.09 0.13 0.18 0.22 0.26 0.28 0.29 0.29 0.24 0.18 0.11 0.06 0.02 0.01 0.00 0.00 0.00 0.00 0.01 0.02 0.02 0.03 0.03 0.04 0.06 0.08
0.01 0.03 0.06 0.08 0.11 0.13 0.13 0.09 0.04 0.03 0.04 0.06 0.09 0.09 0.10 0.09 0.09 0.11 0.14 0.16 0.19 0.21 0.19 0.17 0.15 0.10 0.06 0.04 0.02 0.01 0.01 0.01 0.00 0.00 0.01 0.02 0.03 0.04 0.04 0.04 0.06 0.09 0.10
0.01 0.02 0.04 0.07 0.10 0.12 0.11 0.07 0.04 0.03 0.04 0.06 0.07 0.09 0.09 0.08 0.09 0.10 0.10 0.11 0.12 0.11 0.10 0.08 0.04 0.02 0.02 0.01 0.01 0.01 0.01 0.00 0.00 0.00 0.01 0.02 0.03 0.06 0.07 0.08 0.09 0.10 0.11
0.01 0.02 0.05 0.07 0.10 0.11 0.09 0.05 0.04 0.04 0.04 0.05 0.06 0.08 0.10 0.11 0.11 0.09 0.07 0.06 0.05 0.04 0.04 0.02 0.01 0.01 0.01 0.00 0.00 0.00 0.00 0.00 0.00 0.01 0.02 0.04 0.04 0.09 0.10 0.10 0.11 0.11 0.11
0.01 0.02 0.06 0.08 0.10 0.09 0.07 0.05 0.04 0.04 0.04 0.04 0.05 0.06 0.10 0.13 0.15 0.11 0.04 0.02 0.01 0.01 0.01 0.01 0.01 0.00 0.00 0.00 0.00 0.00 0.00 0.00 0.00 0.01 0.02 0.03 0.05 0.12 0.13 0.12 0.13 0.14 0.16
0.02 0.04 0.07 0.09 0.09 0.08 0.07 0.05 0.04 0.04 0.04 0.04 0.03 0.05 0.07 0.11 0.15 0.12 0.04 0.02 0.01 0.01 0.01 0.01 0.01 0.00 0.00 0.00 0.00 0.00 0.00 0.00 0.00 0.01 0.02 0.03 0.07 0.16 0.16 0.14 0.14 0.14 0.14
0.02 0.05 0.09 0.11 0.09 0.08 0.06 0.06 0.04 0.04 0.03 0.03 0.03 0.04 0.05 0.07 0.10 0.11 0.06 0.01 0.01 0.01 0.01 0.01 0.01 0.01 0.01 0.00 0.00 0.00 0.00 0.00 0.00 0.01 0.02 0.03 0.06 0.10 0.10 0.09 0.09 0.10 0.10
0.04 0.06 0.10 0.11 0.10 0.09 0.07 0.05 0.05 0.04 0.03 0.03 0.02 0.03 0.03 0.03 0.04 0.07 0.05 0.02 0.01 0.01 0.01 0.01 0.02 0.02 0.01 0.01 0.00 0.00 0.00 0.00 0.00 0.01 0.01 0.02 0.04 0.05 0.06 0.07 0.09 0.11 0.12
0.09 0.07 0.08 0.09 0.08 0.08 0.07 0.05 0.04 0.04 0.03 0.02 0.02 0.01 0.01 0.01 0.02 0.03 0.02 0.01 0.01 0.01 0.02 0.02 0.02 0.02 0.01 0.01 0.00 0.00 0.00 0.00 0.00 0.00 0.01 0.01 0.03 0.04 0.05 0.07 0.09 0.11 0.12
0.15 0.11 0.09 0.08 0.07 0.06 0.06 0.04 0.03 0.03 0.02 0.01 0.01 0.00 0.00 0.01 0.01 0.01 0.01 0.00 0.01 0.01 0.01 0.01 0.01 0.01 0.01 0.00 0.00 0.00 0.00 0.00 0.00 0.00 0.01 0.01 0.02 0.03 0.04 0.05 0.07 0.08 0.09
0.16 0.13 0.09 0.09 0.09 0.07 0.05 0.04 0.03 0.02 0.02 0.01 0.01 0.00 0.00 0.00 0.00 0.00 0.00 0.00 0.00 0.01 0.00 0.01 0.01 0.00 0.00 0.00 0.00 0.00 0.00 0.00 0.00 0.00 0.00 0.01 0.01 0.03 0.03 0.04 0.05 0.05 0.05
0.21 0.14 0.09 0.09 0.10 0.10 0.07 0.05 0.03 0.02 0.01 0.01 0.00 0.00 0.00 0.00 0.00 0.00 0.00 0.00 0.00 0.00 0.00 0.00 0.00 0.00 0.00 0.00 0.00 0.00 0.00 0.00 0.00 0.00 0.00 0.00 0.01 0.02 0.03 0.03 0.03 0.04 0.04
0.31 0.21 0.12 0.10 0.11 0.11 0.10 0.06 0.04 0.02 0.01 0.01 0.00 0.00 0.00 0.00 0.00 0.00 0.00 0.00 0.00 0.00 0.00 0.00 0.00 0.00 0.00 0.00 0.00 0.00 0.00 0.00 0.00 0.00 0.00 0.00 0.00 0.01 0.02 0.03 0.03 0.04 0.05
0.35 0.27 0.20 0.16 0.13 0.12 0.12 0.10 0.06 0.05 0.02 0.01 0.01 0.01 0.00 0.00 0.00 0.00 0.00 0.00 0.00 0.00 0.00 0.00 0.00 0.00 0.00 0.00 0.00 0.00 0.00 0.00 0.00 0.00 0.00 0.00 0.00 0.00 0.01 0.02 0.03 0.05 0.09
0.38 0.33 0.28 0.22 0.17 0.14 0.12 0.10 0.07 0.06 0.04 0.02 0.02 0.01 0.01 0.00 0.00 0.00 0.00 0.00 0.00 0.00 0.00 0.00 0.00 0.00 0.00 0.00 0.00 0.00 0.00 0.00 0.00 0.00 0.00 0.00 0.00 0.00 0.00 0.01 0.04 0.07 0.11
0.47 0.46 0.40 0.34 0.27 0.21 0.18 0.17 0.13 0.10 0.08 0.06 0.04 0.03 0.02 0.01 0.01 0.00 0.00 0.00 0.01 0.01 0.00 0.00 0.00 0.00 0.00 0.00 0.00 0.00 0.00 0.00 0.00 0.00 0.00 0.00 0.00 0.00 0.00 0.01 0.04 0.07 0.10
0.50 0.51 0.48 0.39 0.36 0.33 0.30 0.27 0.20 0.16 0.15 0.12 0.10 0.08 0.05 0.03 0.02 0.01 0.01 0.01 0.01 0.01 0.01 0.01 0.01 0.01 0.00 0.01 0.01 0.01 0.01 0.00 0.00 0.01 0.00 0.00 0.00 0.00 0.01 0.01 0.03 0.05 0.08
0.45 0.47 0.50 0.46 0.41 0.46 0.47 0.41 0.36 0.33 0.27 0.23 0.19 0.13 0.10 0.06 0.05 0.04 0.04 0.04 0.04 0.04 0.03 0.03 0.03 0.02 0.02 0.02 0.01 0.01 0.01 0.01 0.01 0.01 0.01 0.01 0.01 0.01 0.01 0.01 0.02 0.02 0.05
0.39 0.44 0.46 0.55 0.59 0.61 0.65 0.59 0.53 0.48 0.42 0.39 0.32 0.28 0.24 0.17 0.13 0.09 0.08 0.09 0.09 0.09 0.08 0.08 0.07 0.06 0.04 0.05 0.04 0.02 0.02 0.01 0.01 0.01 0.01 0.01 0.01 0.01 0.01 0.02 0.02 0.02 0.03
0.32 0.38 0.38 0.39 0.52 0.61 0.59 0.52 0.45 0.44 0.48 0.50 0.50 0.47 0.40 0.33 0.27 0.20 0.17 0.16 0.16 0.13 0.12 0.11 0.10 0.08 0.07 0.07 0.06 0.04 0.02 0.02 0.02 0.02 0.02 0.02 0.02 0.02 0.02 0.03 0.03 0.03 0.04
0.25 0.27 0.32 0.34 0.41 0.45 0.46 0.50 0.57 0.62 0.64 0.65 0.60 0.52 0.46 0.43 0.40 0.34 0.29 0.25 0.22 0.19 0.16 0.15 0.15 0.13 0.12 0.13 0.14 0.16 0.11 0.05 0.03 0.03 0.03 0.03 0.03 0.03 0.03 0.04 0.05 0.05 0.06
0.16 0.21 0.24 0.28 0.32 0.36 0.44 0.57 0.66 0.67 0.60 0.52 0.45 0.41 0.46 0.53 0.52 0.45 0.39 0.38 0.36 0.32 0.27 0.26 0.26 0.25 0.24 0.24 0.24 0.28 0.21 0.10 0.06 0.04 0.03 0.04 0.05 0.05 0.05 0.05 0.06 0.06 0.07
0.09 0.14 0.19 0.23 0.27 0.32 0.39 0.42 0.42 0.41 0.39 0.38 0.43 0.49 0.55 0.55 0.54 0.53 0.51 0.49 0.45 0.43 0.39 0.41 0.45 0.43 0.38 0.29 0.26 0.25 0.27 0.24 0.23 0.14 0.06 0.06 0.07 0.06 0.06 0.07 0.07 0.08 0.10
0.07 0.09 0.14 0.19 0.22 0.26 0.30 0.34 0.39 0.39 0.40 0.44 0.46 0.48 0.49 0.49 0.50 0.51 0.52 0.49 0.43 0.43 0.44 0.48 0.48 0.48 0.45 0.41 0.37 0.36 0.36 0.31 0.29 0.29 0.18 0.09 0.09 0.09 0.10 0.10 0.11 0.13 0.15
0.05 0.07 0.10 0.16 0.22 0.28 0.33 0.35 0.34 0.34 0.35 0.35 0.34 0.36 0.41 0.42 0.40 0.41 0.45 0.46 0.46 0.48 0.50 0.52 0.53 0.55 0.56 0.55 0.50 0.46 0.46 0.42 0.37 0.41 0.39 0.27 0.23 0.20 0.20 0.22 0.25 0.27 0.28

GEFSSE_prec_meanprecacc_108.txt.gz
Total_Precipitation_Accumulation
0.02 0.05 0.13 0.12 0.11 0.12 0.13 0.11 0.09 0.08 0.09 0.10 0.13 0.14 0.14 0.14 0.13 0.11 0.11 0.15 0.21 0.28 0.34 0.36 0.34 0.32 0.29 0.24 0.13 0.06 0.03 0.02 0.01 0.01 0.01 0.02 0.04 0.04 0.04 0.03 0.03 0.06 0.08
0.01 0.04 0.10 0.10 0.11 0.13 0.15 0.12 0.08 0.05 0.06 0.09 0.12 0.13 0.14 0.13 0.11 0.12 0.16 0.20 0.23 0.27 0.30 0.30 0.30 0.24 0.18 0.12 0.06 0.02 0.01 0.00 0.00 0.00 0.00 0.01 0.02 0.03 0.03 0.03 0.04 0.07 0.09
0.01 0.04 0.07 0.09 0.11 0.13 0.13 0.09 0.05 0.04 0.05 0.08 0.11 0.12 0.13 0.11 0.12 0.14 0.16 0.18 0.20 0.21 0.19 0.18 0.15 0.10 0.06 0.04 0.02 0.02 0.01 0.01 0.01 0.00 0.01 0.02 0.03 0.05 0.05 0.05 0.07 0.09 0.11
0.01 0.03 0.05 0.08 0.11 0.12 0.11 0.07 0.04 0.04 0.05 0.08 0.10 0.12 0.12 0.11 0.11 0.11 0.12 0.12 0.12 0.11 0.10 0.08 0.04 0.03 0.02 0.01 0.01 0.01 0.01 0.00 0.00 0.00 0.01 0.02 0.03 0.07 0.08 0.09 0.10 0.11 0.11
0.02 0.03 0.06 0.08 0.11 0.11 0.09 0.06 0.04 0.04 0.05 0.07 0.09 0.11 0.13 0.14 0.13 0.11 0.08 0.06 0.05 0.04 0.04 0.02 0.01 0.01 0.01 0.00 0.01 0.00 0.00 0.00 0.00 0.01 0.02 0.04 0.05 0.09 0.10 0.10 0.11 0.11 0.11
0.02 0.04 0.07 0.09 0.10 0.09 0.07 0.05 0.04 0.05 0.06 0.07 0.07 0.09 0.12 0.16 0.18 0.13 0.05 0.02 0.02 0.01 0.01 0.01 0.01 0.01 0.00 0.00 0.00 0.00 0.00 0.00 0.00 0.01 0.02 0.03 0.05 0.12 0.14 0.13 0.13 0.15 0.16
0.03 0.05 0.09 0.10 0.10 0.08 0.07 0.06 0.05 0.05 0.05 0.06 0.06 0.07 0.10 0.14 0.17 0.14 0.05 0.02 0.01 0.01 0.01 0.01 0.01 0.00 0.00 0.00 0.00 0.00 0.00 0.00 0.00 0.01 0.02 0.03 0.07 0.16 0.17 0.15 0.15 0.14 0.14
0.06 0.08 0.12 0.13 0.10 0.08 0.07 0.06 0.05 0.05 0.04 0.05 0.05 0.06 0.08 0.10 0.13 0.13 0.06 0.02 0.01 0.01 0.01 0.01 0.01 0.01 0.01 0.00 0.00 0.00 0.00 0.00 0.00 0.01 0.02 0.03 0.07 0.10 0.10 0.09 0.09 0.10 0.10
0.11 0.11 0.14 0.14 0.12 0.09 0.07 0.06 0.06 0.05 0.04 0.04 0.04 0.04 0.05 0.05 0.07 0.08 0.05 0.02 0.01 0.01 0.01 0.02 0.02 0.02 0.01 0.01 0.00 0.00 0.00 0.00 0.00 0.01 0.01 0.02 0.04 0.06 0.06 0.07 0.10 0.11 0.12
0.20 0.17 0.14 0.13 0.11 0.09 0.08 0.06 0.05 0.04 0.03 0.03 0.03 0.02 0.02 0.02 0.03 0.04 0.02 0.01 0.01 0.01 0.02 0.02 0.02 0.02 0.01 0.01 0.00 0.00 0.00 0.00 0.00 0.00 0.01 0.01 0.03 0.04 0.05 0.07 0.09 0.11 0.12
0.29 0.24 0.16 0.12 0.10 0.08 0.07 0.05 0.05 0.04 0.03 0.02 0.01 0.01 0.01 0.02 0.02 0.02 0.01 0.01 0.01 0.01 0.01 0.01 0.01 0.01 0.01 0.00 0.00 0.00 0.00 0.00 0.00 0.00 0.01 0.01 0.02 0.03 0.04 0.06 0.07 0.08 0.09
0.31 0.25 0.18 0.13 0.12 0.09 0.07 0.05 0.05 0.03 0.03 0.02 0.01 0.01 0.01 0.01 0.01 0.01 0.00 0.00 0.00 0.01 0.01 0.01 0.01 0.00 0.00 0.00 0.00 0.00 0.00 0.00 0.00 0.00 0.00 0.01 0.01 0.03 0.04 0.05 0.05 0.05 0.06
0.38 0.28 0.20 0.15 0.14 0.12 0.08 0.05 0.04 0.03 0.02 0.02 0.01 0.01 0.01 0.01 0.01 0.01 0.00 0.00 0.00 0.00 0.00 0.00 0.00 0.00 0.00 0.00 0.00 0.00 0.00 0.00 0.00 0.00 0.00 0.00 0.01 0.02 0.04 0.04 0.04 0.04 0.05
0.51 0.36 0.28 0.21 0.15 0.13 0.11 0.07 0.05 0.02 0.02 0.01 0.01 0.01 0.00 0.00 0.01 0.00 0.00 0.00 0.00 0.00 0.00 0.00 0.00 0.00 0.00 0.00 0.00 0.00 0.00 0.00 0.00 0.00 0.00 0.00 0.00 0.01 0.03 0.04 0.04 0.05 0.07
0.53 0.44 0.38 0.32 0.21 0.15 0.14 0.10 0.07 0.05 0.03 0.02 0.01 0.01 0.01 0.00 0.00 0.00 0.00 0.00 0.00 0.00 0.00 0.00 0.00 0.00 0.00 0.00 0.00 0.00 0.00 0.00 0.00 0.00 0.00 0.00 0.00 0.01 0.02 0.02 0.04 0.06 0.10
0.54 0.48 0.44 0.39 0.30 0.20 0.15 0.11 0.08 0.07 0.06 0.04 0.03 0.02 0.02 0.01 0.01 0.00 0.00 0.00 0.00 0.01 0.01 0.01 0.01 0.01 0.01 0.00 0.00 0.00 0.00 0.00 0.00 0.00 0.00 0.00 0.00 0.00 0.01 0.02 0.04 0.09 0.13
0.64 0.62 0.54 0.51 0.45 0.31 0.24 0.20 0.15 0.10 0.09 0.07 0.05 0.04 0.03 0.01 0.01 0.01 0.01 0.01 0.01 0.01 0.01 0.01 0.01 0.01 0.00 0.00 0.00 0.00 0.00 0.00 0.00 0.00 0.01 0.00 0.00 0.00 0.01 0.02 0.05 0.09 0.12
0.74 0.73 0.66 0.57 0.59 0.53 0.42 0.34 0.24 0.18 0.16 0.13 0.12 0.09 0.07 0.04 0.03 0.02 0.03 0.02 0.02 0.02 0.02 0.02 0.01 0.01 0.01 0.01 0.01 0.01 0.01 0.01 0.01 0.01 0.00 0.01 0.01 0.01 0.01 0.02 0.03 0.06 0.09
0.74 0.72 0.71 0.66 0.65 0.74 0.68 0.53 0.43 0.37 0.30 0.26 0.22 0.16 0.13 0.10 0.08 0.08 0.07 0.07 0.07 0.06 0.05 0.05 0.04 0.04 0.03 0.03 0.02 0.02 0.02 0.02 0.01 0.01 0.01 0.01 0.01 0.01 0.01 0.01 0.02 0.03 0.05
0.74 0.77 0.76 0.83 0.83 0.87 0.96 0.83 0.67 0.57 0.49 0.46 0.38 0.33 0.30 0.22 0.17 0.14 0.11 0.13 0.13 0.12 0.12 0.12 0.10 0.08 0.06 0.06 0.06 0.03 0.03 0.02 0.02 0.01 0.01 0.01 0.01 0.01 0.02 0.02 0.02 0.02 0.03
0.59 0.72 0.71 0.77 0.93 0.95 0.90 0.82 0.66 0.57 0.57 0.59 0.56 0.54 0.47 0.40 0.34 0.26 0.23 0.22 0.20 0.18 0.17 0.15 0.14 0.12 0.10 0.10 0.09 0.06 0.04 0.03 0.03 0.02 0.02 0.02 0.02 0.02 0.02 0.03 0.03 0.03 0.04
0.48 0.53 0.59 0.62 0.75 0.84 0.80 0.79 0.83 0.82 0.78 0.77 0.70 0.60 0.53 0.51 0.49 0.43 0.37 0.33 0.29 0.26 0.23 0.21 0.21 0.19 0.18 0.18 0.18 0.19 0.12 0.05 0.03 0.03 0.03 0.03 0.03 0.03 0.04 0.05 0.05 0.05 0.06
0.35 0.42 0.45 0.48 0.53 0.63 0.77 0.87 0.92 0.91 0.80 0.67 0.57 0.53 0.57 0.63 0.63 0.55 0.50 0.50 0.47 0.43 0.37 0.36 0.35 0.31 0.28 0.27 0.28 0.31 0.24 0.12 0.07 0.05 0.04 0.05 0.06 0.05 0.05 0.06 0.06 0.07 0.07
0.21 0.30 0.38 0.43 0.48 0.54 0.69 0.70 0.65 0.60 0.58 0.55 0.57 0.62 0.67 0.67 0.67 0.66 0.64 0.61 0.59 0.57 0.52 0.52 0.55 0.51 0.44 0.34 0.30 0.28 0.30 0.27 0.25 0.16 0.07 0.06 0.07 0.06 0.07 0.07 0.07 0.08 0.10
0.13 0.20 0.28 0.36 0.40 0.47 0.55 0.58 0.61 0.61 0.63 0.67 0.67 0.65 0.63 0.61 0.63 0.66 0.68 0.65 0.58 0.56 0.57 0.58 0.57 0.56 0.51 0.45 0.41 0.40 0.40 0.35 0.32 0.31 0.19 0.09 0.09 0.09 0.10 0.11 0.11 0.13 0.15
0.08 0.12 0.19 0.28 0.35 0.43 0.51 0.55 0.56 0.54 0.56 0.58 0.58 0.59 0.61 0.60 0.57 0.57 0.60 0.60 0.60 0.60 0.61 0.63 0.64 0.63 0.62 0.61 0.56 0.51 0.50 0.46 0.39 0.43 0.40 0.27 0.23 0.20 0.20 0.22 0.25 0.27 0.28

GEFSSE_prec_meanprecacc_114.txt.gz
Total_Precipitation_Accumulation
0.02 0.06 0.13 0.12 0.11 0.12 0.14 0.11 0.10 0.09 0.10 0.12 0.15 0.17 0.17 0.18 0.16 0.14 0.13 0.17 0.23 0.29 0.35 0.37 0.35 0.33 0.29 0.24 0.13 0.06 0.03 0.02 0.01 0.01 0.02 0.03 0.04 0.05 0.05 0.04 0.04 0.06 0.09
0.01 0.05 0.10 0.10 0.12 0.14 0.15 0.12 0.08 0.06 0.07 0.12 0.15 0.16 0.17 0.17 0.15 0.15 0.18 0.22 0.25 0.28 0.32 0.31 0.30 0.25 0.18 0.12 0.06 0.03 0.01 0.00 0.00 0.00 0.00 0.01 0.02 0.03 0.03 0.03 0.04 0.07 0.09
0.01 0.04 0.08 0.09 0.12 0.14 0.13 0.10 0.05 0.04 0.06 0.11 0.13 0.14 0.16 0.16 0.16 0.16 0.19 0.21 0.23 0.23 0.21 0.19 0.16 0.10 0.06 0.04 0.02 0.02 0.01 0.01 0.01 0.00 0.01 0.03 0.03 0.05 0.05 0.05 0.07 0.10 0.11
0.01 0.03 0.06 0.08 0.11 0.12 0.11 0.07 0.04 0.04 0.07 0.10 0.12 0.15 0.16 0.16 0.15 0.16 0.14 0.15 0.14 0.12 0.10 0.08 0.05 0.03 0.02 0.02 0.01 0.01 0.01 0.00 0.00 0.01 0.02 0.03 0.04 0.07 0.09 0.09 0.10 0.11 0.11
0.02 0.03 0.06 0.08 0.11 0.12 0.09 0.06 0.05 0.05 0.07 0.10 0.12 0.15 0.18 0.17 0.17 0.15 0.11 0.08 0.06 0.05 0.04 0.03 0.02 0.01 0.01 0.01 0.01 0.01 0.00 0.00 0.00 0.01 0.02 0.04 0.05 0.10 0.11 0.11 0.11 0.12 0.12
0.04 0.05 0.08 0.09 0.11 0.10 0.08 0.06 0.05 0.05 0.08 0.11 0.12 0.14 0.17 0.19 0.21 0.16 0.07 0.03 0.02 0.02 0.01 0.01 0.01 0.01 0.00 0.00 0.00 0.00 0.00 0.00 0.00 0.01 0.02 0.03 0.05 0.13 0.14 0.13 0.13 0.15 0.16
0.06 0.08 0.11 0.11 0.11 0.09 0.08 0.06 0.05 0.06 0.08 0.10 0.11 0.13 0.14 0.17 0.20 0.17 0.06 0.02 0.01 0.01 0.01 0.01 0.01 0.00 0.00 0.00 0.00 0.00 0.00 0.00 0.00 0.01 0.02 0.03 0.07 0.16 0.17 0.15 0.15 0.14 0.14
0.09 0.12 0.16 0.16 0.12 0.09 0.08 0.07 0.06 0.06 0.07 0.09 0.10 0.11 0.12 0.13 0.16 0.16 0.07 0.02 0.01 0.01 0.01 0.01 0.01 0.01 0.01 0.00 0.00 0.00 0.00 0.00 0.00 0.01 0.02 0.03 0.07 0.11 0.10 0.09 0.09 0.10 0.10
0.17 0.17 0.19 0.19 0.15 0.11 0.08 0.07 0.07 0.06 0.06 0.08 0.09 0.10 0.09 0.08 0.10 0.11 0.05 0.02 0.01 0.01 0.01 0.02 0.02 0.02 0.01 0.01 0.00 0.00 0.00 0.00 0.00 0.01 0.01 0.02 0.04 0.06 0.06 0.07 0.10 0.11 0.12
0.31 0.27 0.21 0.18 0.16 0.12 0.09 0.07 0.07 0.06 0.05 0.07 0.07 0.06 0.05 0.05 0.07 0.07 0.03 0.02 0.01 0.01 0.02 0.02 0.02 0.02 0.01 0.01 0.00 0.00 0.00 0.00 0.00 0.00 0.01 0.01 0.03 0.04 0.05 0.07 0.09 0.11 0.12
0.46 0.40 0.28 0.20 0.18 0.13 0.09 0.06 0.06 0.05 0.05 0.04 0.04 0.03 0.03 0.05 0.05 0.04 0.02 0.01 0.01 0.02 0.01 0.02 0.02 0.01 0.01 0.00 0.00 0.00 0.00 0.00 0.00 0.00 0.01 0.01 0.02 0.03 0.04 0.06 0.07 0.08 0.09
0.50 0.43 0.34 0.26 0.21 0.17 0.11 0.07 0.07 0.05 0.04 0.04 0.02 0.02 0.04 0.04 0.04 0.03 0.01 0.01 0.01 0.01 0.01 0.01 0.01 0.00 0.00 0.00 0.00 0.00 0.00 0.00 0.00 0.00 0.00 0.01 0.01 0.03 0.04 0.05 0.05 0.05 0.06
0.59 0.48 0.39 0.33 0.27 0.22 0.14 0.09 0.07 0.04 0.04 0.04 0.03 0.03 0.03 0.03 0.03 0.03 0.01 0.01 0.01 0.00 0.00 0.01 0.00 0.00 0.00 0.00 0.00 0.00 0.00 0.00 0.00 0.00 0.00 0.00 0.01 0.02 0.04 0.04 0.04 0.05 0.06
0.76 0.60 0.49 0.43 0.35 0.27 0.21 0.15 0.10 0.05 0.04 0.04 0.04 0.03 0.03 0.03 0.02 0.02 0.01 0.01 0.00 0.00 0.01 0.00 0.00 0.00 0.00 0.00 0.00 0.00 0.00 0.00 0.00 0.00 0.00 0.00 0.00 0.01 0.03 0.04 0.04 0.05 0.07
0.80 0.72 0.62 0.56 0.47 0.36 0.28 0.21 0.15 0.11 0.06 0.04 0.04 0.03 0.03 0.02 0.02 0.02 0.01 0.01 0.01 0.00 0.00 0.00 0.00 0.00 0.01 0.00 0.00 0.00 0.00 0.00 0.00 0.01 0.00 0.00 0.00 0.01 0.02 0.03 0.04 0.07 0.11
0.81 0.79 0.71 0.65 0.57 0.44 0.31 0.23 0.17 0.14 0.10 0.05 0.04 0.04 0.03 0.02 0.03 0.03 0.02 0.01 0.01 0.01 0.01 0.01 0.01 0.01 0.01 0.00 0.00 0.00 0.00 0.01 0.01 0.01 0.00 0.00 0.00 0.00 0.01 0.02 0.05 0.10 0.15
0.92 0.95 0.87 0.80 0.74 0.57 0.40 0.32 0.23 0.17 0.13 0.09 0.06 0.06 0.05 0.03 0.03 0.03 0.03 0.02 0.02 0.02 0.02 0.02 0.02 0.01 0.01 0.01 0.01 0.01 0.01 0.02 0.02 0.01 0.01 0.01 0.00 0.00 0.01 0.03 0.06 0.10 0.14
1.03 1.05 0.98 0.90 0.92 0.83 0.64 0.47 0.34 0.25 0.20 0.15 0.13 0.11 0.09 0.06 0.06 0.07 0.06 0.05 0.04 0.03 0.03 0.04 0.04 0.03 0.03 0.03 0.02 0.02 0.03 0.03 0.02 0.02 0.01 0.01 0.01 0.02 0.01 0.02 0.04 0.07 0.11
1.07 1.06 1.04 0.98 0.99 1.06 0.95 0.73 0.57 0.46 0.36 0.29 0.24 0.19 0.16 0.13 0.13 0.14 0.12 0.10 0.09 0.08 0.08 0.08 0.07 0.06 0.06 0.06 0.05 0.05 0.05 0.04 0.03 0.02 0.02 0.01 0.01 0.01 0.01 0.01 0.02 0.03 0.06
1.11 1.16 1.12 1.17 1.15 1.21 1.27 1.09 0.88 0.71 0.58 0.53 0.42 0.37 0.34 0.26 0.21 0.18 0.15 0.15 0.15 0.15 0.15 0.15 0.13 0.11 0.10 0.11 0.11 0.07 0.06 0.05 0.03 0.02 0.02 0.02 0.01 0.01 0.02 0.02 0.02 0.02 0.03
0.96 1.11 1.05 1.09 1.23 1.25 1.23 1.11 0.93 0.76 0.69 0.65 0.61 0.57 0.50 0.43 0.36 0.28 0.25 0.24 0.22 0.20 0.19 0.18 0.18 0.16 0.15 0.16 0.15 0.11 0.07 0.05 0.04 0.03 0.03 0.02 0.02 0.02 0.03 0.03 0.03 0.03 0.04
0.76 0.85 0.91 0.91 1.03 1.10 1.07 1.05 1.09 1.07 0.96 0.86 0.75 0.64 0.56 0.54 0.51 0.46 0.40 0.35 0.31 0.29 0.26 0.25 0.27 0.27 0.25 0.26 0.26 0.25 0.16 0.07 0.04 0.03 0.03 0.03 0.03 0.03 0.04 0.05 0.05 0.06 0.06
0.58 0.65 0.70 0.76 0.82 0.90 1.03 1.10 1.13 1.15 1.02 0.83 0.66 0.58 0.61 0.67 0.66 0.59 0.54 0.55 0.52 0.49 0.43 0.43 0.45 0.42 0.38 0.37 0.37 0.40 0.30 0.16 0.09 0.06 0.05 0.06 0.06 0.06 0.05 0.06 0.06 0.07 0.07
0.40 0.51 0.58 0.66 0.74 0.78 0.93 0.94 0.86 0.78 0.75 0.68 0.67 0.69 0.74 0.74 0.74 0.72 0.70 0.68 0.66 0.64 0.59 0.61 0.68 0.65 0.58 0.48 0.42 0.39 0.39 0.33 0.30 0.19 0.08 0.07 0.07 0.06 0.07 0.07 0.07 0.08 0.10
0.26 0.35 0.44 0.56 0.61 0.66 0.74 0.79 0.84 0.81 0.78 0.81 0.79 0.74 0.71 0.69 0.70 0.74 0.76 0.72 0.66 0.64 0.64 0.67 0.68 0.71 0.67 0.61 0.55 0.52 0.50 0.44 0.39 0.37 0.22 0.11 0.10 0.10 0.10 0.11 0.11 0.13 0.15
0.17 0.21 0.30 0.40 0.51 0.60 0.67 0.73 0.77 0.77 0.74 0.74 0.74 0.72 0.72 0.69 0.65 0.64 0.68 0.67 0.67 0.68 0.70 0.73 0.76 0.77 0.77 0.75 0.70 0.63 0.60 0.55 0.47 0.49 0.45 0.30 0.25 0.21 0.21 0.23 0.25 0.27 0.28

GEFSSE_prec_meanprecacc_120.txt.gz
Total_Precipitation_Accumulation
0.02 0.06 0.14 0.13 0.11 0.12 0.14 0.12 0.10 0.10 0.10 0.12 0.16 0.18 0.18 0.19 0.17 0.14 0.13 0.17 0.23 0.30 0.36 0.38 0.36 0.34 0.30 0.25 0.14 0.07 0.03 0.02 0.02 0.02 0.02 0.03 0.05 0.06 0.05 0.04 0.05 0.07 0.10
0.01 0.05 0.10 0.11 0.12 0.14 0.15 0.12 0.09 0.07 0.08 0.12 0.16 0.17 0.19 0.18 0.16 0.16 0.20 0.23 0.26 0.29 0.34 0.32 0.31 0.26 0.19 0.12 0.06 0.03 0.01 0.00 0.00 0.00 0.00 0.01 0.02 0.04 0.04 0.04 0.05 0.07 0.10
0.01 0.04 0.08 0.10 0.12 0.14 0.13 0.10 0.06 0.05 0.07 0.12 0.15 0.16 0.18 0.18 0.18 0.19 0.20 0.22 0.24 0.25 0.22 0.19 0.16 0.11 0.07 0.04 0.02 0.02 0.01 0.01 0.01 0.00 0.01 0.03 0.04 0.05 0.05 0.05 0.07 0.10 0.11
0.03 0.04 0.06 0.09 0.11 0.12 0.12 0.07 0.05 0.05 0.08 0.11 0.15 0.17 0.18 0.18 0.17 0.18 0.16 0.16 0.17 0.14 0.11 0.09 0.05 0.03 0.02 0.02 0.01 0.01 0.01 0.00 0.00 0.01 0.02 0.03 0.04 0.08 0.10 0.10 0.11 0.12 0.12
0.04 0.06 0.08 0.09 0.12 0.12 0.10 0.06 0.05 0.06 0.08 0.12 0.15 0.16 0.20 0.20 0.19 0.18 0.13 0.10 0.09 0.06 0.04 0.03 0.02 0.01 0.01 0.01 0.01 0.01 0.00 0.00 0.00 0.01 0.02 0.04 0.05 0.10 0.12 0.11 0.12 0.12 0.12
0.07 0.07 0.11 0.12 0.14 0.12 0.09 0.06 0.05 0.06 0.09 0.13 0.15 0.15 0.19 0.22 0.24 0.19 0.09 0.05 0.05 0.02 0.02 0.01 0.01 0.01 0.00 0.00 0.01 0.00 0.00 0.00 0.00 0.01 0.02 0.03 0.05 0.13 0.14 0.13 0.13 0.15 0.17
0.09 0.12 0.15 0.16 0.15 0.12 0.10 0.07 0.06 0.07 0.09 0.12 0.14 0.15 0.17 0.20 0.23 0.20 0.07 0.03 0.02 0.01 0.01 0.01 0.01 0.00 0.00 0.00 0.00 0.00 0.00 0.00 0.00 0.01 0.02 0.03 0.08 0.17 0.17 0.15 0.15 0.15 0.14
0.13 0.16 0.20 0.22 0.18 0.13 0.10 0.08 0.07 0.08 0.09 0.11 0.13 0.14 0.15 0.16 0.18 0.19 0.08 0.02 0.01 0.01 0.01 0.01 0.01 0.01 0.01 0.00 0.00 0.00 0.00 0.00 0.00 0.01 0.02 0.03 0.07 0.11 0.10 0.09 0.09 0.10 0.10
0.21 0.22 0.22 0.23 0.24 0.19 0.13 0.10 0.09 0.08 0.08 0.10 0.12 0.15 0.12 0.10 0.12 0.13 0.07 0.02 0.01 0.01 0.02 0.02 0.02 0.02 0.01 0.01 0.00 0.00 0.00 0.00 0.00 0.01 0.01 0.02 0.04 0.06 0.06 0.07 0.10 0.11 0.12
0.40 0.33 0.26 0.22 0.21 0.22 0.19 0.12 0.10 0.08 0.07 0.09 0.10 0.09 0.07 0.06 0.08 0.09 0.05 0.02 0.01 0.02 0.02 0.02 0.02 0.02 0.01 0.01 0.00 0.00 0.00 0.00 0.00 0.00 0.01 0.01 0.03 0.04 0.05 0.07 0.09 0.11 0.12
0.59 0.49 0.35 0.26 0.22 0.20 0.20 0.14 0.12 0.09 0.07 0.07 0.06 0.05 0.05 0.06 0.06 0.05 0.03 0.02 0.01 0.02 0.02 0.02 0.02 0.01 0.01 0.00 0.00 0.00 0.00 0.00 0.00 0.00 0.01 0.01 0.02 0.03 0.04 0.06 0.07 0.08 0.09
0.63 0.54 0.42 0.33 0.27 0.22 0.19 0.17 0.15 0.10 0.08 0.06 0.04 0.03 0.05 0.05 0.05 0.04 0.02 0.01 0.01 0.01 0.01 0.01 0.01 0.01 0.00 0.00 0.00 0.00 0.00 0.00 0.00 0.00 0.00 0.01 0.01 0.03 0.04 0.05 0.06 0.06 0.06
0.76 0.61 0.48 0.41 0.34 0.27 0.22 0.18 0.16 0.11 0.08 0.07 0.05 0.04 0.04 0.05 0.05 0.04 0.02 0.02 0.01 0.01 0.01 0.01 0.01 0.00 0.00 0.00 0.00 0.00 0.00 0.00 0.00 0.00 0.00 0.01 0.01 0.02 0.04 0.05 0.05 0.05 0.06
0.97 0.78 0.64 0.53 0.44 0.34 0.28 0.23 0.18 0.12 0.08 0.08 0.07 0.04 0.04 0.04 0.04 0.03 0.02 0.01 0.01 0.00 0.01 0.00 0.00 0.00 0.00 0.00 0.00 0.00 0.00 0.00 0.00 0.00 0.01 0.01 0.01 0.02 0.04 0.05 0.05 0.06 0.07
1.06 0.95 0.80 0.71 0.59 0.46 0.36 0.29 0.23 0.18 0.12 0.08 0.08 0.05 0.04 0.04 0.04 0.04 0.02 0.02 0.01 0.00 0.00 0.00 0.00 0.00 0.01 0.00 0.00 0.00 0.00 0.00 0.00 0.01 0.01 0.00 0.00 0.01 0.03 0.04 0.06 0.08 0.13
1.05 1.04 0.95 0.83 0.73 0.59 0.45 0.32 0.26 0.22 0.16 0.11 0.09 0.07 0.06 0.04 0.04 0.04 0.03 0.02 0.02 0.02 0.02 0.02 0.02 0.01 0.01 0.01 0.00 0.00 0.01 0.01 0.01 0.01 0.01 0.00 0.00 0.01 0.02 0.04 0.06 0.12 0.17
1.13 1.18 1.09 0.99 0.91 0.73 0.58 0.46 0.33 0.26 0.21 0.16 0.13 0.11 0.08 0.06 0.05 0.04 0.04 0.03 0.04 0.04 0.03 0.03 0.03 0.02 0.02 0.02 0.02 0.02 0.02 0.02 0.02 0.02 0.02 0.02 0.01 0.01 0.01 0.03 0.07 0.11 0.17
1.23 1.27 1.24 1.10 1.10 1.02 0.85 0.64 0.47 0.35 0.29 0.22 0.20 0.17 0.14 0.10 0.09 0.09 0.08 0.07 0.07 0.05 0.05 0.06 0.05 0.05 0.04 0.04 0.04 0.04 0.05 0.05 0.04 0.03 0.03 0.02 0.02 0.03 0.02 0.02 0.04 0.07 0.12
1.27 1.27 1.34 1.24 1.19 1.27 1.22 0.97 0.74 0.62 0.48 0.38 0.32 0.25 0.22 0.20 0.19 0.18 0.15 0.13 0.12 0.12 0.10 0.09 0.08 0.08 0.07 0.07 0.06 0.07 0.07 0.07 0.05 0.04 0.04 0.02 0.02 0.02 0.02 0.02 0.02 0.03 0.06
1.34 1.39 1.42 1.46 1.37 1.43 1.54 1.41 1.14 0.90 0.76 0.66 0.51 0.44 0.39 0.32 0.30 0.26 0.21 0.20 0.19 0.19 0.17 0.16 0.14 0.12 0.11 0.12 0.12 0.09 0.08 0.07 0.05 0.05 0.04 0.03 0.02 0.02 0.02 0.02 0.02 0.02 0.03
1.19 1.36 1.33 1.40 1.50 1.51 1.50 1.41 1.24 1.02 0.90 0.85 0.75 0.67 0.57 0.49 0.41 0.34 0.31 0.30 0.27 0.24 0.21 0.20 0.19 0.18 0.16 0.18 0.18 0.13 0.09 0.07 0.06 0.05 0.05 0.04 0.04 0.03 0.03 0.03 0.04 0.04 0.04
0.96 1.07 1.17 1.19 1.31 1.39 1.36 1.33 1.37 1.39 1.23 1.08 0.93 0.79 0.66 0.62 0.57 0.50 0.43 0.39 0.35 0.32 0.29 0.28 0.31 0.30 0.28 0.29 0.31 0.30 0.20 0.11 0.07 0.06 0.07 0.07 0.06 0.06 0.05 0.05 0.06 0.06 0.06
0.75 0.85 0.94 1.00 1.06 1.13 1.27 1.36 1.40 1.44 1.36 1.11 0.88 0.72 0.73 0.77 0.74 0.64 0.59 0.58 0.56 0.52 0.47 0.47 0.50 0.48 0.45 0.45 0.46 0.50 0.39 0.23 0.15 0.10 0.08 0.09 0.09 0.08 0.07 0.07 0.07 0.07 0.08
0.54 0.67 0.78 0.88 0.95 0.98 1.11 1.13 1.08 0.99 0.98 0.92 0.87 0.84 0.85 0.87 0.84 0.79 0.75 0.72 0.70 0.69 0.64 0.66 0.74 0.73 0.68 0.58 0.52 0.50 0.49 0.42 0.38 0.25 0.14 0.12 0.11 0.09 0.09 0.09 0.08 0.09 0.10
0.40 0.48 0.60 0.75 0.81 0.83 0.89 0.94 1.01 0.98 0.94 0.99 0.98 0.90 0.82 0.78 0.81 0.84 0.83 0.78 0.71 0.69 0.69 0.71 0.73 0.77 0.74 0.70 0.66 0.64 0.62 0.54 0.50 0.47 0.30 0.17 0.15 0.14 0.14 0.14 0.13 0.14 0.16
0.29 0.31 0.41 0.53 0.68 0.76 0.80 0.85 0.91 0.91 0.87 0.86 0.89 0.87 0.84 0.78 0.73 0.73 0.76 0.76 0.75 0.75 0.76 0.80 0.83 0.85 0.86 0.85 0.81 0.75 0.72 0.66 0.58 0.60 0.54 0.38 0.32 0.26 0.25 0.26 0.27 0.28 0.29

GEFSSE_prec_meanprecacc_126.txt.gz
Total_Precipitation_Accumulation
0.02 0.06 0.14 0.13 0.12 0.13 0.14 0.12 0.11 0.10 0.11 0.13 0.17 0.19 0.19 0.19 0.17 0.15 0.14 0.17 0.23 0.31 0.37 0.39 0.36 0.34 0.31 0.26 0.15 0.07 0.04 0.03 0.03 0.03 0.03 0.04 0.05 0.06 0.05 0.04 0.05 0.07 0.10
0.01 0.05 0.11 0.12 0.13 0.15 0.16 0.13 0.09 0.07 0.08 0.13 0.17 0.18 0.19 0.19 0.17 0.17 0.20 0.23 0.27 0.30 0.34 0.33 0.32 0.26 0.20 0.13 0.07 0.03 0.01 0.01 0.01 0.00 0.01 0.01 0.03 0.04 0.04 0.04 0.05 0.08 0.10
0.01 0.04 0.09 0.11 0.13 0.15 0.14 0.10 0.07 0.05 0.07 0.13 0.16 0.16 0.18 0.19 0.19 0.19 0.21 0.22 0.25 0.26 0.23 0.20 0.17 0.11 0.07 0.05 0.03 0.02 0.01 0.01 0.01 0.01 0.01 0.03 0.04 0.05 0.06 0.05 0.08 0.10 0.12
0.04 0.05 0.08 0.11 0.14 0.14 0.13 0.08 0.05 0.05 0.08 0.12 0.15 0.17 0.19 0.20 0.19 0.20 0.17 0.17 0.18 0.15 0.12 0.09 0.05 0.03 0.02 0.02 0.01 0.01 0.01 0.00 0.00 0.01 0.02 0.03 0.04 0.08 0.10 0.10 0.11 0.12 0.12
0.07 0.08 0.11 0.13 0.16 0.16 0.12 0.08 0.06 0.07 0.09 0.13 0.16 0.17 0.21 0.22 0.21 0.20 0.15 0.10 0.10 0.07 0.05 0.03 0.02 0.02 0.01 0.01 0.01 0.01 0.00 0.00 0.00 0.01 0.02 0.04 0.05 0.11 0.12 0.11 0.12 0.12 0.12
0.10 0.11 0.15 0.17 0.19 0.17 0.13 0.09 0.07 0.07 0.10 0.14 0.16 0.16 0.21 0.25 0.26 0.21 0.10 0.06 0.06 0.03 0.02 0.01 0.01 0.01 0.01 0.01 0.01 0.00 0.00 0.00 0.00 0.01 0.02 0.03 0.05 0.13 0.15 0.14 0.14 0.15 0.17
0.13 0.16 0.20 0.21 0.20 0.18 0.15 0.11 0.09 0.09 0.11 0.14 0.16 0.17 0.18 0.22 0.26 0.22 0.08 0.04 0.03 0.02 0.01 0.01 0.01 0.01 0.01 0.01 0.00 0.00 0.00 0.00 0.00 0.01 0.02 0.03 0.08 0.17 0.17 0.15 0.15 0.15 0.14
0.18 0.21 0.28 0.31 0.26 0.21 0.20 0.17 0.13 0.12 0.12 0.14 0.17 0.17 0.17 0.19 0.21 0.20 0.09 0.03 0.02 0.02 0.01 0.01 0.01 0.01 0.01 0.01 0.00 0.00 0.00 0.00 0.00 0.01 0.02 0.03 0.07 0.11 0.11 0.09 0.09 0.10 0.11
0.30 0.29 0.30 0.34 0.35 0.29 0.22 0.21 0.20 0.16 0.14 0.15 0.17 0.20 0.16 0.13 0.15 0.15 0.09 0.03 0.02 0.02 0.02 0.02 0.02 0.02 0.01 0.01 0.00 0.00 0.00 0.00 0.00 0.01 0.01 0.02 0.04 0.06 0.06 0.07 0.10 0.11 0.12
0.50 0.46 0.37 0.34 0.33 0.32 0.29 0.21 0.21 0.19 0.16 0.16 0.17 0.16 0.13 0.11 0.11 0.12 0.07 0.04 0.02 0.02 0.02 0.02 0.02 0.02 0.02 0.01 0.00 0.00 0.00 0.00 0.00 0.00 0.01 0.01 0.03 0.04 0.05 0.07 0.10 0.11 0.13
0.71 0.67 0.53 0.40 0.34 0.29 0.29 0.25 0.22 0.21 0.18 0.17 0.15 0.13 0.11 0.11 0.10 0.08 0.04 0.03 0.03 0.03 0.02 0.02 0.02 0.01 0.01 0.00 0.00 0.00 0.00 0.00 0.00 0.00 0.01 0.01 0.02 0.03 0.04 0.06 0.08 0.08 0.10
0.73 0.68 0.62 0.53 0.44 0.36 0.29 0.25 0.25 0.20 0.18 0.16 0.12 0.10 0.10 0.09 0.08 0.06 0.03 0.03 0.03 0.03 0.02 0.02 0.01 0.01 0.00 0.00 0.00 0.00 0.00 0.00 0.00 0.00 0.00 0.01 0.01 0.03 0.04 0.06 0.06 0.07 0.07
0.89 0.74 0.63 0.57 0.54 0.45 0.34 0.26 0.24 0.19 0.17 0.16 0.14 0.12 0.10 0.09 0.08 0.06 0.03 0.03 0.03 0.03 0.02 0.02 0.01 0.00 0.00 0.00 0.00 0.00 0.00 0.00 0.00 0.00 0.00 0.01 0.01 0.03 0.05 0.06 0.06 0.06 0.07
1.13 0.92 0.77 0.67 0.60 0.51 0.41 0.31 0.24 0.19 0.16 0.14 0.14 0.15 0.12 0.08 0.07 0.05 0.03 0.02 0.02 0.02 0.02 0.01 0.01 0.00 0.00 0.00 0.00 0.00 0.00 0.00 0.00 0.00 0.01 0.01 0.01 0.02 0.04 0.06 0.06 0.07 0.08
1.25 1.13 0.95 0.85 0.73 0.63 0.52 0.39 0.29 0.24 0.18 0.15 0.14 0.14 0.12 0.09 0.07 0.06 0.04 0.03 0.02 0.01 0.01 0.01 0.00 0.00 0.01 0.00 0.00 0.00 0.00 0.00 0.00 0.01 0.01 0.00 0.00 0.01 0.03 0.06 0.07 0.10 0.14
1.21 1.21 1.13 1.00 0.86 0.73 0.62 0.46 0.35 0.29 0.23 0.18 0.15 0.14 0.13 0.11 0.09 0.07 0.05 0.04 0.03 0.03 0.02 0.03 0.02 0.01 0.01 0.01 0.00 0.00 0.01 0.01 0.01 0.01 0.01 0.00 0.00 0.01 0.02 0.05 0.08 0.14 0.20
1.30 1.32 1.24 1.17 1.09 0.89 0.74 0.65 0.49 0.37 0.28 0.22 0.19 0.17 0.14 0.12 0.11 0.09 0.07 0.05 0.04 0.04 0.04 0.04 0.03 0.02 0.02 0.02 0.02 0.02 0.02 0.03 0.03 0.02 0.02 0.02 0.01 0.01 0.02 0.04 0.08 0.13 0.19
1.41 1.41 1.38 1.23 1.24 1.18 1.00 0.80 0.62 0.47 0.38 0.30 0.26 0.23 0.20 0.16 0.15 0.15 0.12 0.10 0.08 0.06 0.07 0.07 0.06 0.05 0.04 0.04 0.04 0.04 0.05 0.05 0.04 0.04 0.04 0.03 0.03 0.03 0.03 0.03 0.05 0.09 0.13
1.44 1.41 1.47 1.37 1.29 1.37 1.32 1.10 0.90 0.75 0.58 0.49 0.41 0.31 0.29 0.27 0.26 0.24 0.20 0.16 0.15 0.14 0.12 0.11 0.10 0.09 0.08 0.07 0.06 0.07 0.08 0.07 0.06 0.05 0.04 0.03 0.02 0.02 0.02 0.02 0.03 0.04 0.07
1.50 1.51 1.53 1.58 1.50 1.56 1.65 1.53 1.27 1.05 0.89 0.78 0.65 0.54 0.46 0.39 0.38 0.32 0.27 0.24 0.23 0.22 0.20 0.18 0.16 0.14 0.12 0.13 0.13 0.09 0.09 0.07 0.06 0.05 0.04 0.04 0.03 0.03 0.03 0.03 0.03 0.03 0.04
1.35 1.49 1.44 1.49 1.60 1.64 1.65 1.54 1.35 1.15 1.03 0.98 0.89 0.81 0.68 0.56 0.48 0.41 0.37 0.36 0.33 0.29 0.26 0.23 0.22 0.19 0.18 0.19 0.19 0.14 0.10 0.08 0.06 0.06 0.06 0.06 0.05 0.05 0.05 0.05 0.05 0.05 0.05
1.12 1.19 1.29 1.30 1.40 1.50 1.51 1.48 1.49 1.51 1.35 1.20 1.07 0.93 0.81 0.73 0.66 0.57 0.50 0.46 0.43 0.40 0.36 0.33 0.34 0.32 0.30 0.31 0.33 0.33 0.22 0.13 0.08 0.08 0.09 0.09 0.09 0.08 0.08 0.08 0.08 0.08 0.08
0.90 0.98 1.06 1.12 1.18 1.23 1.39 1.52 1.56 1.58 1.51 1.26 1.02 0.88 0.88 0.91 0.87 0.75 0.66 0.64 0.62 0.61 0.56 0.53 0.53 0.50 0.47 0.46 0.48 0.54 0.43 0.26 0.16 0.11 0.10 0.11 0.11 0.10 0.09 0.09 0.10 0.11 0.11
0.69 0.82 0.91 0.99 1.06 1.08 1.22 1.28 1.25 1.13 1.10 1.04 0.99 0.98 1.01 1.02 1.00 0.93 0.87 0.80 0.75 0.74 0.71 0.75 0.81 0.78 0.72 0.60 0.55 0.53 0.53 0.46 0.41 0.28 0.16 0.14 0.13 0.12 0.13 0.12 0.13 0.14 0.14
0.51 0.58 0.72 0.87 0.91 0.92 0.99 1.07 1.15 1.10 1.05 1.09 1.08 1.00 0.94 0.91 0.95 0.99 0.97 0.90 0.80 0.75 0.74 0.77 0.79 0.83 0.80 0.74 0.69 0.68 0.67 0.59 0.55 0.52 0.35 0.22 0.20 0.19 0.19 0.19 0.20 0.22 0.24
0.41 0.40 0.52 0.64 0.80 0.87 0.90 0.96 1.03 1.01 0.96 0.96 0.99 0.98 0.96 0.91 0.85 0.86 0.91 0.88 0.86 0.84 0.83 0.86 0.89 0.90 0.91 0.90 0.85 0.78 0.75 0.69 0.61 0.64 0.59 0.43 0.36 0.31 0.31 0.33 0.35 0.36 0.36

GEFSSE_prec_meanprecacc_132.txt.gz
Total_Precipitation_Accumulation
0.02 0.06 0.15 0.15 0.13 0.14 0.16 0.14 0.12 0.11 0.11 0.14 0.18 0.19 0.19 0.20 0.18 0.15 0.14 0.18 0.24 0.31 0.38 0.39 0.37 0.36 0.32 0.27 0.16 0.08 0.05 0.04 0.04 0.03 0.03 0.04 0.06 0.07 0.06 0.05 0.05 0.07 0.11
0.01 0.05 0.13 0.14 0.15 0.17 0.18 0.14 0.11 0.08 0.09 0.14 0.18 0.19 0.20 0.20 0.17 0.17 0.20 0.24 0.27 0.31 0.35 0.33 0.33 0.28 0.21 0.14 0.07 0.04 0.02 0.01 0.01 0.01 0.01 0.01 0.03 0.04 0.04 0.04 0.05 0.08 0.11
0.01 0.05 0.11 0.15 0.17 0.17 0.15 0.12 0.08 0.07 0.09 0.14 0.17 0.18 0.20 0.20 0.20 0.20 0.21 0.23 0.25 0.27 0.24 0.21 0.18 0.12 0.07 0.05 0.03 0.02 0.01 0.01 0.01 0.01 0.01 0.03 0.04 0.06 0.06 0.06 0.08 0.11 0.12
0.04 0.06 0.10 0.16 0.20 0.20 0.16 0.11 0.07 0.07 0.10 0.14 0.17 0.19 0.20 0.21 0.20 0.21 0.18 0.17 0.18 0.16 0.12 0.10 0.06 0.03 0.02 0.02 0.02 0.01 0.01 0.00 0.00 0.01 0.02 0.03 0.04 0.08 0.10 0.10 0.11 0.12 0.12
0.07 0.08 0.13 0.18 0.22 0.22 0.17 0.11 0.09 0.09 0.10 0.15 0.18 0.19 0.23 0.23 0.23 0.22 0.16 0.11 0.11 0.08 0.06 0.04 0.02 0.02 0.01 0.01 0.01 0.01 0.00 0.00 0.00 0.01 0.02 0.04 0.05 0.11 0.12 0.12 0.12 0.12 0.12
0.10 0.11 0.17 0.21 0.26 0.25 0.20 0.14 0.11 0.10 0.12 0.16 0.19 0.20 0.24 0.26 0.28 0.23 0.11 0.07 0.07 0.04 0.03 0.02 0.01 0.01 0.01 0.01 0.01 0.01 0.01 0.00 0.00 0.01 0.02 0.03 0.06 0.13 0.15 0.14 0.14 0.15 0.17
0.13 0.17 0.22 0.25 0.27 0.29 0.24 0.19 0.15 0.13 0.15 0.16 0.19 0.20 0.22 0.25 0.29 0.24 0.10 0.05 0.04 0.03 0.02 0.02 0.01 0.01 0.01 0.01 0.01 0.01 0.00 0.00 0.00 0.01 0.02 0.03 0.08 0.17 0.18 0.15 0.15 0.15 0.14
0.19 0.23 0.31 0.37 0.34 0.32 0.32 0.27 0.21 0.18 0.18 0.19 0.20 0.21 0.22 0.23 0.26 0.23 0.11 0.04 0.02 0.02 0.01 0.01 0.01 0.01 0.01 0.01 0.01 0.00 0.00 0.00 0.00 0.01 0.02 0.03 0.07 0.11 0.11 0.09 0.09 0.10 0.11
0.31 0.31 0.33 0.41 0.45 0.42 0.38 0.37 0.34 0.28 0.24 0.23 0.24 0.25 0.21 0.19 0.21 0.19 0.11 0.04 0.03 0.03 0.02 0.02 0.02 0.02 0.02 0.01 0.01 0.00 0.00 0.00 0.00 0.01 0.01 0.02 0.04 0.06 0.06 0.08 0.10 0.12 0.12
0.52 0.48 0.40 0.39 0.42 0.45 0.43 0.37 0.37 0.34 0.30 0.27 0.26 0.24 0.19 0.17 0.18 0.16 0.10 0.05 0.03 0.03 0.03 0.03 0.03 0.02 0.02 0.01 0.00 0.00 0.00 0.00 0.00 0.00 0.01 0.02 0.03 0.04 0.05 0.07 0.10 0.11 0.13
0.74 0.70 0.57 0.44 0.40 0.39 0.41 0.38 0.39 0.37 0.32 0.29 0.26 0.23 0.20 0.20 0.19 0.14 0.08 0.05 0.04 0.04 0.03 0.03 0.02 0.02 0.01 0.00 0.00 0.00 0.00 0.00 0.00 0.00 0.01 0.01 0.02 0.03 0.04 0.06 0.08 0.09 0.10
0.77 0.72 0.67 0.58 0.49 0.44 0.40 0.37 0.38 0.34 0.32 0.28 0.23 0.21 0.21 0.20 0.18 0.14 0.09 0.06 0.05 0.05 0.04 0.03 0.02 0.01 0.01 0.00 0.00 0.00 0.00 0.00 0.00 0.00 0.00 0.01 0.02 0.03 0.04 0.06 0.07 0.07 0.08
0.92 0.78 0.68 0.63 0.59 0.52 0.44 0.37 0.34 0.30 0.28 0.27 0.23 0.20 0.19 0.19 0.19 0.16 0.10 0.08 0.07 0.06 0.06 0.05 0.03 0.01 0.00 0.01 0.00 0.00 0.00 0.00 0.00 0.00 0.00 0.01 0.01 0.03 0.05 0.06 0.06 0.07 0.07
1.17 0.98 0.83 0.74 0.67 0.60 0.51 0.40 0.33 0.28 0.25 0.23 0.22 0.22 0.20 0.16 0.14 0.13 0.08 0.06 0.05 0.05 0.05 0.04 0.02 0.02 0.01 0.00 0.00 0.00 0.00 0.00 0.00 0.00 0.01 0.01 0.01 0.03 0.05 0.06 0.06 0.08 0.09
1.29 1.19 1.01 0.91 0.81 0.72 0.63 0.50 0.38 0.32 0.26 0.23 0.22 0.21 0.19 0.16 0.14 0.12 0.08 0.06 0.04 0.04 0.04 0.03 0.02 0.01 0.01 0.01 0.00 0.00 0.00 0.00 0.00 0.01 0.01 0.00 0.00 0.02 0.04 0.06 0.08 0.10 0.15
1.25 1.28 1.21 1.06 0.93 0.81 0.71 0.57 0.46 0.37 0.31 0.27 0.23 0.21 0.19 0.17 0.15 0.13 0.09 0.08 0.06 0.05 0.04 0.04 0.03 0.02 0.02 0.01 0.01 0.01 0.01 0.01 0.02 0.01 0.01 0.01 0.01 0.01 0.02 0.05 0.09 0.15 0.21
1.33 1.39 1.34 1.26 1.17 0.97 0.83 0.73 0.58 0.46 0.36 0.31 0.28 0.25 0.21 0.18 0.18 0.15 0.12 0.08 0.08 0.08 0.06 0.06 0.05 0.04 0.03 0.03 0.02 0.03 0.02 0.03 0.03 0.02 0.03 0.02 0.02 0.01 0.02 0.04 0.09 0.14 0.20
1.47 1.48 1.48 1.34 1.33 1.26 1.10 0.92 0.73 0.58 0.48 0.39 0.35 0.32 0.29 0.23 0.21 0.21 0.18 0.14 0.12 0.10 0.10 0.09 0.08 0.07 0.05 0.04 0.04 0.04 0.05 0.05 0.04 0.04 0.04 0.03 0.03 0.03 0.03 0.03 0.06 0.10 0.15
1.56 1.52 1.60 1.50 1.42 1.47 1.41 1.20 1.01 0.86 0.69 0.58 0.49 0.40 0.38 0.36 0.33 0.31 0.25 0.22 0.21 0.20 0.16 0.14 0.11 0.10 0.09 0.08 0.07 0.08 0.08 0.07 0.06 0.05 0.04 0.03 0.02 0.02 0.02 0.03 0.03 0.05 0.08
1.62 1.67 1.70 1.74 1.66 1.69 1.76 1.61 1.35 1.14 0.98 0.86 0.74 0.65 0.57 0.47 0.45 0.41 0.34 0.31 0.29 0.28 0.26 0.23 0.18 0.15 0.13 0.14 0.14 0.10 0.09 0.07 0.06 0.05 0.04 0.04 0.03 0.03 0.03 0.03 0.04 0.04 0.05
1.45 1.61 1.61 1.66 1.75 1.77 1.76 1.63 1.42 1.20 1.09 1.04 0.97 0.92 0.81 0.68 0.58 0.50 0.45 0.44 0.40 0.34 0.30 0.28 0.26 0.23 0.20 0.20 0.20 0.15 0.11 0.09 0.07 0.06 0.06 0.06 0.05 0.05 0.05 0.06 0.06 0.06 0.07
1.20 1.31 1.42 1.46 1.56 1.62 1.59 1.55 1.54 1.56 1.40 1.25 1.13 1.01 0.92 0.87 0.80 0.69 0.59 0.54 0.51 0.47 0.41 0.37 0.38 0.36 0.33 0.33 0.35 0.34 0.23 0.14 0.09 0.08 0.09 0.09 0.09 0.09 0.09 0.09 0.09 0.09 0.09
0.97 1.09 1.17 1.27 1.35 1.36 1.49 1.59 1.62 1.63 1.56 1.31 1.08 0.94 0.96 1.01 1.00 0.90 0.79 0.74 0.70 0.68 0.62 0.58 0.58 0.55 0.50 0.49 0.51 0.56 0.45 0.27 0.17 0.11 0.10 0.11 0.12 0.10 0.10 0.10 0.10 0.11 0.11
0.77 0.91 1.01 1.10 1.20 1.22 1.34 1.37 1.31 1.19 1.16 1.09 1.03 1.02 1.07 1.10 1.10 1.06 1.02 0.94 0.85 0.82 0.77 0.81 0.87 0.83 0.76 0.64 0.57 0.55 0.55 0.48 0.43 0.29 0.16 0.14 0.14 0.13 0.13 0.13 0.13 0.14 0.15
0.62 0.67 0.81 0.96 1.02 1.04 1.10 1.16 1.23 1.17 1.11 1.13 1.12 1.04 0.99 0.97 1.02 1.09 1.09 1.05 0.93 0.84 0.82 0.84 0.86 0.89 0.86 0.80 0.74 0.71 0.69 0.62 0.57 0.54 0.36 0.22 0.21 0.20 0.20 0.20 0.21 0.23 0.25
0.53 0.50 0.60 0.73 0.90 0.97 1.00 1.05 1.10 1.08 1.02 1.00 1.04 1.02 1.01 0.95 0.90 0.92 0.98 0.98 0.98 0.95 0.92 0.94 0.97 0.98 0.98 0.96 0.90 0.83 0.79 0.73 0.65 0.67 0.62 0.45 0.37 0.32 0.32 0.33 0.35 0.37 0.38

GEFSSE_prec_meanprecacc_138.txt.gz
Total_Precipitation_Accumulation
0.02 0.06 0.16 0.16 0.14 0.16 0.18 0.16 0.15 0.14 0.14 0.15 0.19 0.20 0.20 0.20 0.18 0.16 0.16 0.18 0.24 0.32 0.38 0.40 0.38 0.36 0.33 0.28 0.16 0.09 0.06 0.06 0.05 0.04 0.04 0.04 0.06 0.07 0.06 0.05 0.06 0.08 0.12
0.01 0.05 0.13 0.16 0.16 0.19 0.20 0.17 0.13 0.11 0.11 0.17 0.21 0.20 0.21 0.21 0.18 0.18 0.22 0.25 0.28 0.32 0.36 0.35 0.35 0.29 0.22 0.16 0.09 0.05 0.03 0.01 0.01 0.01 0.01 0.01 0.03 0.04 0.04 0.04 0.05 0.08 0.11
0.01 0.05 0.11 0.16 0.19 0.20 0.18 0.14 0.10 0.09 0.11 0.16 0.20 0.21 0.21 0.21 0.21 0.21 0.23 0.24 0.27 0.29 0.25 0.22 0.20 0.14 0.09 0.06 0.04 0.03 0.02 0.01 0.01 0.01 0.01 0.03 0.04 0.06 0.06 0.06 0.08 0.11 0.12
0.04 0.06 0.10 0.17 0.22 0.22 0.19 0.14 0.10 0.11 0.14 0.17 0.20 0.23 0.23 0.22 0.21 0.23 0.20 0.19 0.20 0.18 0.14 0.12 0.08 0.05 0.03 0.03 0.02 0.02 0.01 0.01 0.00 0.01 0.03 0.04 0.04 0.09 0.10 0.10 0.11 0.12 0.12
0.07 0.09 0.14 0.19 0.25 0.25 0.19 0.14 0.12 0.12 0.15 0.20 0.23 0.24 0.27 0.26 0.26 0.25 0.18 0.13 0.13 0.10 0.08 0.05 0.03 0.02 0.02 0.01 0.01 0.01 0.01 0.00 0.00 0.01 0.03 0.05 0.06 0.12 0.13 0.12 0.12 0.13 0.12
0.11 0.12 0.18 0.22 0.28 0.29 0.22 0.16 0.13 0.13 0.16 0.21 0.25 0.26 0.31 0.32 0.32 0.26 0.14 0.09 0.08 0.06 0.05 0.04 0.02 0.01 0.01 0.01 0.01 0.01 0.01 0.00 0.00 0.01 0.02 0.04 0.07 0.14 0.15 0.14 0.14 0.15 0.17
0.14 0.19 0.25 0.27 0.30 0.33 0.29 0.24 0.19 0.16 0.19 0.21 0.24 0.26 0.30 0.33 0.35 0.28 0.13 0.07 0.05 0.05 0.04 0.03 0.02 0.01 0.01 0.01 0.01 0.01 0.00 0.00 0.01 0.02 0.02 0.04 0.09 0.18 0.18 0.16 0.16 0.15 0.14
0.20 0.24 0.34 0.41 0.37 0.36 0.38 0.34 0.28 0.24 0.22 0.24 0.25 0.27 0.30 0.32 0.34 0.30 0.15 0.07 0.04 0.04 0.04 0.03 0.02 0.02 0.01 0.01 0.01 0.01 0.00 0.00 0.01 0.01 0.02 0.03 0.08 0.12 0.11 0.10 0.09 0.10 0.11
0.32 0.32 0.36 0.45 0.50 0.46 0.42 0.42 0.41 0.35 0.32 0.30 0.31 0.33 0.29 0.28 0.29 0.27 0.16 0.07 0.05 0.05 0.05 0.05 0.04 0.04 0.02 0.01 0.01 0.00 0.00 0.00 0.01 0.01 0.01 0.02 0.05 0.07 0.07 0.08 0.10 0.12 0.13
0.53 0.50 0.43 0.43 0.48 0.52 0.51 0.42 0.41 0.40 0.38 0.37 0.35 0.32 0.25 0.23 0.24 0.22 0.14 0.07 0.06 0.06 0.06 0.05 0.04 0.03 0.02 0.01 0.01 0.00 0.00 0.00 0.01 0.01 0.01 0.02 0.03 0.04 0.05 0.07 0.10 0.12 0.14
0.75 0.72 0.60 0.49 0.46 0.46 0.50 0.46 0.46 0.43 0.37 0.34 0.33 0.28 0.25 0.27 0.27 0.20 0.11 0.07 0.07 0.06 0.05 0.04 0.04 0.03 0.02 0.01 0.00 0.00 0.00 0.00 0.00 0.00 0.01 0.01 0.02 0.03 0.05 0.07 0.08 0.09 0.11
0.78 0.73 0.69 0.62 0.54 0.51 0.48 0.45 0.48 0.43 0.39 0.32 0.27 0.26 0.27 0.27 0.25 0.20 0.14 0.09 0.08 0.07 0.06 0.05 0.04 0.02 0.01 0.01 0.00 0.00 0.00 0.00 0.00 0.00 0.00 0.01 0.02 0.03 0.05 0.06 0.07 0.08 0.08
0.93 0.80 0.70 0.67 0.65 0.59 0.52 0.46 0.42 0.37 0.36 0.34 0.29 0.27 0.26 0.28 0.28 0.26 0.19 0.13 0.11 0.09 0.08 0.07 0.05 0.02 0.01 0.01 0.01 0.00 0.00 0.00 0.00 0.00 0.00 0.01 0.02 0.03 0.05 0.07 0.07 0.07 0.08
1.18 0.99 0.87 0.78 0.73 0.68 0.59 0.49 0.42 0.36 0.31 0.31 0.29 0.31 0.31 0.26 0.22 0.21 0.16 0.12 0.10 0.09 0.08 0.07 0.05 0.03 0.01 0.01 0.01 0.00 0.00 0.00 0.00 0.00 0.01 0.01 0.01 0.03 0.06 0.07 0.07 0.08 0.09
1.30 1.20 1.04 0.96 0.87 0.81 0.73 0.60 0.45 0.39 0.32 0.28 0.29 0.30 0.29 0.26 0.21 0.18 0.13 0.11 0.10 0.08 0.07 0.07 0.05 0.04 0.04 0.04 0.02 0.00 0.00 0.00 0.01 0.01 0.01 0.00 0.01 0.02 0.04 0.07 0.08 0.11 0.15
1.26 1.29 1.22 1.10 0.99 0.89 0.81 0.67 0.55 0.45 0.38 0.32 0.29 0.27 0.27 0.26 0.23 0.20 0.15 0.12 0.10 0.09 0.08 0.09 0.08 0.06 0.04 0.03 0.02 0.01 0.01 0.01 0.02 0.01 0.01 0.01 0.01 0.01 0.03 0.05 0.09 0.16 0.22
1.34 1.40 1.35 1.29 1.25 1.05 0.92 0.82 0.68 0.55 0.44 0.38 0.34 0.31 0.28 0.25 0.26 0.23 0.20 0.15 0.13 0.12 0.11 0.11 0.11 0.10 0.08 0.05 0.04 0.04 0.03 0.03 0.03 0.02 0.03 0.02 0.02 0.01 0.02 0.05 0.09 0.14 0.21
1.47 1.50 1.50 1.37 1.40 1.35 1.18 1.02 0.83 0.67 0.57 0.47 0.42 0.39 0.35 0.30 0.29 0.31 0.28 0.23 0.20 0.16 0.15 0.15 0.14 0.13 0.10 0.08 0.06 0.06 0.06 0.06 0.05 0.04 0.04 0.03 0.03 0.03 0.03 0.03 0.06 0.10 0.15
1.56 1.53 1.62 1.55 1.48 1.53 1.49 1.31 1.15 0.98 0.80 0.68 0.60 0.50 0.46 0.43 0.42 0.40 0.35 0.32 0.31 0.28 0.23 0.19 0.16 0.15 0.15 0.11 0.09 0.09 0.09 0.08 0.06 0.05 0.04 0.03 0.03 0.03 0.03 0.03 0.03 0.05 0.09
1.63 1.67 1.72 1.80 1.73 1.78 1.88 1.74 1.49 1.27 1.14 1.00 0.85 0.77 0.68 0.57 0.54 0.49 0.44 0.41 0.39 0.38 0.34 0.29 0.22 0.19 0.18 0.18 0.17 0.13 0.11 0.08 0.07 0.06 0.05 0.04 0.03 0.03 0.03 0.04 0.04 0.04 0.05
1.46 1.62 1.63 1.74 1.84 1.91 1.93 1.78 1.53 1.32 1.26 1.20 1.08 1.03 0.92 0.78 0.68 0.59 0.54 0.54 0.51 0.45 0.40 0.37 0.34 0.29 0.26 0.26 0.25 0.19 0.13 0.11 0.09 0.07 0.07 0.06 0.06 0.06 0.06 0.06 0.07 0.06 0.07
1.21 1.32 1.46 1.55 1.66 1.75 1.77 1.72 1.64 1.65 1.52 1.38 1.23 1.11 1.03 0.97 0.89 0.77 0.67 0.62 0.59 0.56 0.50 0.48 0.50 0.47 0.41 0.41 0.41 0.40 0.28 0.16 0.10 0.10 0.11 0.11 0.10 0.10 0.09 0.09 0.09 0.09 0.10
0.99 1.11 1.22 1.36 1.45 1.48 1.65 1.76 1.75 1.75 1.67 1.43 1.18 1.03 1.05 1.12 1.10 0.98 0.87 0.83 0.79 0.76 0.69 0.66 0.68 0.66 0.60 0.57 0.58 0.63 0.51 0.31 0.19 0.12 0.11 0.12 0.13 0.11 0.10 0.10 0.11 0.12 0.12
0.80 0.95 1.07 1.20 1.31 1.34 1.48 1.52 1.45 1.31 1.27 1.19 1.11 1.09 1.13 1.17 1.18 1.14 1.10 1.02 0.94 0.91 0.86 0.89 0.94 0.91 0.85 0.71 0.63 0.60 0.60 0.52 0.46 0.31 0.17 0.15 0.15 0.13 0.13 0.13 0.13 0.14 0.15
0.67 0.73 0.87 1.06 1.15 1.18 1.24 1.29 1.36 1.30 1.23 1.23 1.20 1.10 1.04 1.03 1.09 1.17 1.17 1.13 1.01 0.92 0.89 0.92 0.96 0.99 0.95 0.88 0.81 0.77 0.74 0.66 0.61 0.57 0.38 0.23 0.21 0.20 0.20 0.20 0.21 0.23 0.26
0.60 0.58 0.68 0.83 1.02 1.10 1.13 1.17 1.22 1.20 1.14 1.10 1.12 1.09 1.07 1.02 0.97 0.99 1.08 1.07 1.06 1.03 0.98 0.99 1.04 1.08 1.08 1.06 1.00 0.91 0.86 0.78 0.68 0.71 0.65 0.47 0.39 0.33 0.33 0.34 0.36 0.37 0.38

GEFSSE_prec_meanprecacc_144.txt.gz
Total_Precipitation_Accumulation
0.03 0.07 0.17 0.17 0.15 0.17 0.19 0.16 0.16 0.16 0.15 0.17 0.20 0.20 0.20 0.20 0.19 0.17 0.16 0.19 0.25 0.33 0.39 0.41 0.39 0.37 0.33 0.28 0.17 0.09 0.07 0.07 0.05 0.04 0.04 0.05 0.06 0.08 0.07 0.06 0.06 0.09 0.13
0.01 0.05 0.14 0.16 0.17 0.20 0.21 0.18 0.14 0.12 0.13 0.19 0.24 0.21 0.21 0.21 0.19 0.19 0.22 0.25 0.28 0.33 0.38 0.37 0.36 0.29 0.23 0.17 0.10 0.06 0.04 0.02 0.01 0.01 0.01 0.01 0.03 0.05 0.05 0.04 0.05 0.09 0.12
0.02 0.05 0.12 0.17 0.20 0.21 0.19 0.15 0.11 0.10 0.12 0.18 0.23 0.24 0.23 0.22 0.21 0.22 0.23 0.24 0.27 0.30 0.27 0.24 0.22 0.16 0.11 0.08 0.04 0.04 0.03 0.01 0.01 0.01 0.01 0.03 0.04 0.06 0.06 0.06 0.08 0.11 0.13
0.04 0.07 0.11 0.18 0.24 0.24 0.21 0.15 0.11 0.12 0.15 0.19 0.22 0.26 0.26 0.24 0.23 0.24 0.20 0.20 0.21 0.19 0.16 0.14 0.11 0.07 0.04 0.03 0.02 0.02 0.01 0.01 0.01 0.01 0.03 0.04 0.05 0.09 0.11 0.11 0.12 0.13 0.13
0.07 0.09 0.14 0.20 0.27 0.27 0.22 0.16 0.13 0.13 0.16 0.21 0.24 0.27 0.31 0.30 0.28 0.27 0.19 0.15 0.14 0.11 0.09 0.07 0.05 0.03 0.02 0.01 0.01 0.01 0.01 0.01 0.01 0.01 0.03 0.05 0.06 0.12 0.13 0.12 0.13 0.13 0.13
0.11 0.13 0.19 0.24 0.31 0.31 0.25 0.19 0.16 0.15 0.18 0.22 0.26 0.29 0.35 0.39 0.36 0.28 0.16 0.11 0.09 0.07 0.06 0.05 0.04 0.02 0.01 0.01 0.01 0.01 0.01 0.00 0.00 0.01 0.02 0.04 0.07 0.14 0.15 0.14 0.14 0.15 0.17
0.15 0.20 0.26 0.29 0.33 0.36 0.33 0.28 0.22 0.20 0.22 0.23 0.26 0.29 0.34 0.39 0.42 0.33 0.15 0.09 0.06 0.06 0.05 0.04 0.04 0.01 0.01 0.01 0.01 0.01 0.01 0.00 0.01 0.02 0.02 0.04 0.10 0.19 0.18 0.16 0.16 0.15 0.15
0.20 0.25 0.36 0.44 0.40 0.39 0.42 0.39 0.32 0.28 0.28 0.29 0.29 0.30 0.33 0.36 0.39 0.37 0.19 0.09 0.05 0.05 0.05 0.04 0.03 0.03 0.01 0.01 0.01 0.01 0.01 0.00 0.01 0.02 0.02 0.03 0.08 0.12 0.11 0.10 0.10 0.11 0.12
0.33 0.32 0.37 0.47 0.53 0.50 0.45 0.46 0.46 0.41 0.36 0.35 0.35 0.37 0.32 0.31 0.34 0.33 0.22 0.11 0.08 0.06 0.07 0.07 0.05 0.05 0.03 0.02 0.01 0.00 0.00 0.00 0.01 0.01 0.01 0.02 0.05 0.07 0.07 0.08 0.10 0.12 0.14
0.54 0.51 0.43 0.44 0.50 0.56 0.55 0.47 0.46 0.45 0.43 0.41 0.38 0.34 0.27 0.25 0.27 0.27 0.18 0.11 0.09 0.08 0.08 0.07 0.05 0.04 0.03 0.02 0.01 0.00 0.00 0.00 0.01 0.01 0.01 0.02 0.03 0.05 0.06 0.08 0.10 0.12 0.14
0.75 0.73 0.62 0.51 0.47 0.49 0.54 0.50 0.51 0.48 0.42 0.38 0.36 0.30 0.26 0.28 0.28 0.22 0.13 0.09 0.09 0.09 0.07 0.05 0.05 0.04 0.02 0.01 0.00 0.00 0.00 0.00 0.00 0.01 0.01 0.01 0.02 0.04 0.05 0.07 0.09 0.10 0.11
0.78 0.74 0.72 0.65 0.57 0.54 0.52 0.49 0.51 0.48 0.44 0.36 0.30 0.28 0.28 0.28 0.26 0.21 0.15 0.10 0.10 0.09 0.08 0.07 0.05 0.03 0.02 0.01 0.00 0.00 0.00 0.00 0.00 0.00 0.00 0.01 0.02 0.04 0.05 0.07 0.08 0.08 0.09
0.94 0.81 0.72 0.70 0.70 0.64 0.57 0.51 0.46 0.41 0.40 0.38 0.33 0.30 0.28 0.30 0.29 0.28 0.20 0.14 0.12 0.11 0.10 0.09 0.06 0.03 0.01 0.01 0.01 0.00 0.00 0.00 0.00 0.00 0.00 0.01 0.02 0.04 0.06 0.07 0.07 0.08 0.08
1.18 1.00 0.88 0.80 0.77 0.74 0.65 0.54 0.47 0.40 0.34 0.34 0.33 0.34 0.34 0.29 0.24 0.24 0.18 0.13 0.11 0.10 0.09 0.08 0.06 0.04 0.02 0.02 0.01 0.00 0.00 0.00 0.00 0.00 0.01 0.01 0.01 0.03 0.06 0.07 0.07 0.08 0.10
1.31 1.20 1.05 0.96 0.89 0.85 0.80 0.66 0.51 0.44 0.36 0.32 0.33 0.35 0.34 0.29 0.25 0.22 0.17 0.14 0.11 0.09 0.08 0.08 0.06 0.05 0.05 0.05 0.03 0.01 0.02 0.01 0.01 0.01 0.01 0.00 0.01 0.02 0.05 0.07 0.08 0.11 0.16
1.26 1.30 1.23 1.11 1.00 0.91 0.85 0.73 0.62 0.52 0.44 0.38 0.35 0.33 0.33 0.31 0.28 0.27 0.21 0.16 0.13 0.11 0.11 0.12 0.12 0.09 0.06 0.04 0.03 0.02 0.02 0.01 0.02 0.01 0.01 0.01 0.01 0.01 0.03 0.06 0.10 0.16 0.23
1.34 1.40 1.36 1.30 1.26 1.07 0.94 0.88 0.76 0.63 0.53 0.46 0.41 0.38 0.34 0.31 0.32 0.30 0.25 0.21 0.17 0.15 0.15 0.15 0.15 0.16 0.14 0.10 0.06 0.05 0.03 0.04 0.03 0.02 0.03 0.02 0.02 0.01 0.02 0.05 0.10 0.15 0.22
1.48 1.50 1.50 1.37 1.41 1.37 1.20 1.06 0.92 0.76 0.65 0.55 0.50 0.46 0.43 0.38 0.37 0.39 0.34 0.28 0.25 0.23 0.20 0.20 0.17 0.16 0.15 0.13 0.11 0.09 0.07 0.07 0.05 0.05 0.04 0.03 0.03 0.03 0.03 0.03 0.06 0.11 0.16
1.56 1.53 1.62 1.55 1.48 1.55 1.51 1.34 1.22 1.08 0.89 0.76 0.69 0.61 0.55 0.51 0.50 0.48 0.42 0.38 0.37 0.37 0.31 0.26 0.21 0.19 0.19 0.17 0.15 0.15 0.13 0.10 0.07 0.06 0.05 0.03 0.03 0.03 0.03 0.03 0.04 0.05 0.09
1.63 1.67 1.72 1.80 1.74 1.79 1.90 1.78 1.56 1.39 1.24 1.08 0.94 0.89 0.84 0.70 0.64 0.59 0.53 0.49 0.46 0.45 0.42 0.37 0.29 0.25 0.23 0.24 0.24 0.19 0.15 0.11 0.08 0.07 0.06 0.05 0.04 0.04 0.04 0.04 0.05 0.05 0.06
1.46 1.62 1.64 1.74 1.85 1.92 1.95 1.81 1.60 1.44 1.37 1.30 1.19 1.15 1.07 0.96 0.84 0.71 0.63 0.62 0.57 0.52 0.47 0.45 0.43 0.38 0.35 0.34 0.34 0.26 0.18 0.14 0.11 0.09 0.08 0.08 0.07 0.07 0.07 0.07 0.07 0.06 0.07
1.22 1.33 1.46 1.55 1.66 1.76 1.79 1.76 1.72 1.76 1.64 1.50 1.36 1.25 1.19 1.14 1.04 0.89 0.76 0.68 0.64 0.61 0.57 0.54 0.57 0.55 0.50 0.50 0.51 0.50 0.36 0.23 0.15 0.14 0.14 0.13 0.11 0.11 0.11 0.10 0.09 0.10 0.10
1.00 1.12 1.22 1.36 1.46 1.49 1.67 1.82 1.84 1.86 1.78 1.55 1.33 1.19 1.21 1.29 1.27 1.10 0.97 0.89 0.84 0.81 0.75 0.73 0.75 0.73 0.68 0.65 0.66 0.73 0.59 0.38 0.23 0.16 0.16 0.16 0.16 0.14 0.13 0.12 0.12 0.12 0.12
0.82 0.96 1.08 1.21 1.31 1.35 1.50 1.58 1.53 1.41 1.36 1.28 1.23 1.26 1.29 1.32 1.35 1.29 1.22 1.11 1.01 0.99 0.94 0.98 1.03 0.99 0.94 0.81 0.73 0.69 0.68 0.57 0.52 0.35 0.21 0.18 0.17 0.16 0.16 0.16 0.16 0.16 0.16
0.70 0.75 0.89 1.08 1.16 1.20 1.27 1.34 1.43 1.38 1.31 1.31 1.29 1.25 1.20 1.17 1.25 1.31 1.31 1.26 1.10 1.00 0.96 1.00 1.04 1.07 1.02 0.96 0.90 0.84 0.82 0.73 0.66 0.61 0.41 0.25 0.23 0.22 0.22 0.22 0.24 0.26 0.28
0.63 0.60 0.71 0.85 1.05 1.13 1.16 1.22 1.29 1.28 1.21 1.19 1.20 1.20 1.22 1.15 1.09 1.12 1.19 1.18 1.16 1.12 1.05 1.06 1.10 1.14 1.15 1.12 1.06 0.98 0.92 0.85 0.74 0.76 0.70 0.50 0.41 0.34 0.34 0.36 0.38 0.40 0.41

GEFSSE_prec_meanprecacc_150.txt.gz
Total_Precipitation_Accumulation
0.03 0.07 0.19 0.19 0.19 0.20 0.21 0.19 0.18 0.17 0.17 0.19 0.20 0.20 0.20 0.21 0.19 0.18 0.17 0.19 0.26 0.34 0.40 0.42 0.40 0.37 0.33 0.28 0.17 0.10 0.08 0.09 0.07 0.05 0.05 0.05 0.07 0.09 0.07 0.06 0.06 0.09 0.13
0.02 0.06 0.16 0.19 0.20 0.23 0.24 0.20 0.17 0.14 0.14 0.21 0.24 0.22 0.22 0.21 0.19 0.20 0.23 0.25 0.29 0.34 0.39 0.39 0.38 0.30 0.24 0.17 0.10 0.06 0.05 0.03 0.01 0.01 0.01 0.02 0.03 0.05 0.05 0.05 0.06 0.09 0.12
0.02 0.06 0.13 0.19 0.23 0.24 0.22 0.18 0.14 0.13 0.15 0.20 0.25 0.25 0.24 0.23 0.22 0.22 0.23 0.25 0.28 0.31 0.29 0.26 0.24 0.17 0.12 0.08 0.04 0.04 0.03 0.01 0.01 0.01 0.01 0.03 0.04 0.06 0.07 0.06 0.09 0.12 0.14
0.05 0.07 0.11 0.20 0.28 0.27 0.24 0.19 0.15 0.15 0.18 0.21 0.25 0.28 0.28 0.26 0.24 0.25 0.21 0.20 0.22 0.20 0.17 0.15 0.12 0.08 0.05 0.03 0.02 0.02 0.01 0.01 0.01 0.01 0.03 0.04 0.05 0.10 0.11 0.11 0.12 0.13 0.13
0.08 0.10 0.15 0.22 0.32 0.31 0.26 0.20 0.17 0.18 0.20 0.25 0.27 0.29 0.33 0.32 0.30 0.29 0.21 0.16 0.16 0.12 0.10 0.09 0.06 0.04 0.02 0.01 0.01 0.01 0.01 0.01 0.01 0.01 0.03 0.05 0.06 0.13 0.13 0.13 0.13 0.13 0.13
0.11 0.13 0.20 0.26 0.35 0.37 0.30 0.24 0.20 0.19 0.22 0.27 0.30 0.31 0.37 0.40 0.39 0.31 0.19 0.14 0.11 0.08 0.07 0.06 0.05 0.03 0.01 0.01 0.01 0.01 0.01 0.01 0.00 0.01 0.02 0.04 0.07 0.15 0.16 0.14 0.14 0.16 0.18
0.15 0.20 0.27 0.31 0.36 0.40 0.38 0.33 0.27 0.25 0.26 0.28 0.31 0.32 0.36 0.42 0.45 0.37 0.19 0.12 0.09 0.07 0.06 0.05 0.06 0.03 0.01 0.01 0.01 0.01 0.01 0.00 0.01 0.02 0.02 0.04 0.10 0.19 0.19 0.16 0.16 0.16 0.15
0.20 0.25 0.37 0.45 0.42 0.42 0.45 0.43 0.37 0.34 0.34 0.34 0.34 0.35 0.38 0.41 0.43 0.41 0.24 0.13 0.08 0.07 0.07 0.06 0.05 0.04 0.02 0.01 0.01 0.01 0.01 0.00 0.01 0.02 0.02 0.03 0.08 0.13 0.12 0.10 0.10 0.11 0.12
0.34 0.33 0.38 0.49 0.54 0.51 0.48 0.49 0.50 0.45 0.41 0.40 0.41 0.42 0.37 0.35 0.38 0.37 0.26 0.15 0.11 0.09 0.09 0.09 0.08 0.07 0.03 0.02 0.01 0.01 0.00 0.00 0.01 0.01 0.01 0.02 0.05 0.07 0.07 0.08 0.11 0.13 0.14
0.56 0.54 0.45 0.46 0.52 0.57 0.57 0.49 0.49 0.48 0.46 0.45 0.42 0.38 0.31 0.28 0.30 0.29 0.20 0.14 0.12 0.11 0.10 0.09 0.08 0.07 0.04 0.02 0.01 0.00 0.00 0.00 0.01 0.01 0.01 0.02 0.03 0.05 0.06 0.08 0.11 0.13 0.15
0.77 0.75 0.64 0.53 0.50 0.51 0.57 0.52 0.54 0.51 0.45 0.43 0.40 0.33 0.29 0.31 0.30 0.24 0.15 0.11 0.11 0.12 0.11 0.09 0.07 0.06 0.03 0.02 0.01 0.00 0.00 0.00 0.00 0.01 0.01 0.01 0.02 0.04 0.05 0.07 0.09 0.10 0.11
0.79 0.76 0.74 0.68 0.60 0.56 0.55 0.52 0.55 0.52 0.48 0.41 0.36 0.32 0.32 0.31 0.29 0.24 0.18 0.12 0.12 0.12 0.12 0.10 0.08 0.06 0.03 0.01 0.01 0.01 0.00 0.00 0.00 0.00 0.00 0.01 0.02 0.04 0.05 0.07 0.08 0.08 0.09
0.95 0.83 0.75 0.73 0.74 0.68 0.60 0.55 0.51 0.45 0.44 0.44 0.38 0.34 0.31 0.33 0.33 0.31 0.22 0.16 0.14 0.13 0.13 0.12 0.09 0.05 0.02 0.02 0.01 0.01 0.00 0.00 0.00 0.00 0.00 0.01 0.02 0.04 0.06 0.07 0.07 0.08 0.08
1.20 1.02 0.90 0.84 0.80 0.77 0.69 0.58 0.52 0.44 0.38 0.38 0.38 0.38 0.37 0.32 0.28 0.27 0.22 0.15 0.13 0.12 0.11 0.10 0.07 0.05 0.04 0.03 0.02 0.01 0.01 0.00 0.00 0.00 0.01 0.01 0.01 0.04 0.07 0.08 0.07 0.08 0.10
1.32 1.22 1.07 0.99 0.92 0.88 0.83 0.70 0.55 0.49 0.40 0.35 0.37 0.39 0.38 0.32 0.28 0.26 0.21 0.18 0.15 0.12 0.11 0.11 0.08 0.07 0.06 0.06 0.04 0.02 0.02 0.01 0.01 0.01 0.01 0.01 0.01 0.02 0.05 0.08 0.09 0.12 0.17
1.29 1.31 1.24 1.13 1.02 0.94 0.88 0.76 0.65 0.56 0.49 0.43 0.40 0.38 0.38 0.35 0.33 0.31 0.26 0.21 0.18 0.16 0.16 0.16 0.15 0.12 0.08 0.05 0.04 0.03 0.02 0.02 0.02 0.02 0.01 0.01 0.01 0.01 0.03 0.07 0.11 0.17 0.24
1.36 1.42 1.37 1.31 1.29 1.10 0.97 0.90 0.78 0.66 0.58 0.51 0.47 0.44 0.39 0.35 0.36 0.34 0.30 0.26 0.23 0.22 0.22 0.21 0.20 0.20 0.17 0.11 0.07 0.06 0.05 0.05 0.04 0.03 0.03 0.02 0.02 0.02 0.02 0.05 0.11 0.16 0.23
1.50 1.51 1.51 1.37 1.42 1.39 1.23 1.08 0.94 0.78 0.69 0.61 0.56 0.52 0.49 0.42 0.41 0.42 0.39 0.34 0.31 0.29 0.28 0.27 0.24 0.21 0.18 0.15 0.12 0.10 0.09 0.08 0.06 0.05 0.05 0.04 0.03 0.03 0.03 0.04 0.06 0.11 0.17
1.57 1.55 1.64 1.55 1.49 1.55 1.52 1.36 1.25 1.11 0.92 0.82 0.76 0.67 0.61 0.57 0.55 0.52 0.46 0.44 0.44 0.43 0.38 0.34 0.29 0.25 0.24 0.21 0.18 0.17 0.16 0.12 0.09 0.07 0.05 0.03 0.03 0.03 0.03 0.03 0.04 0.05 0.09
1.64 1.69 1.74 1.81 1.74 1.79 1.90 1.79 1.58 1.41 1.26 1.12 0.99 0.96 0.92 0.79 0.73 0.67 0.59 0.55 0.53 0.52 0.48 0.44 0.37 0.32 0.29 0.30 0.30 0.24 0.20 0.15 0.11 0.09 0.07 0.05 0.04 0.04 0.04 0.05 0.05 0.05 0.06
1.48 1.64 1.65 1.75 1.86 1.93 1.95 1.81 1.61 1.45 1.38 1.32 1.22 1.19 1.13 1.04 0.95 0.84 0.74 0.69 0.64 0.58 0.53 0.50 0.49 0.46 0.42 0.41 0.40 0.32 0.23 0.19 0.15 0.12 0.11 0.09 0.08 0.07 0.07 0.08 0.08 0.07 0.08
1.26 1.35 1.48 1.56 1.67 1.76 1.79 1.76 1.73 1.76 1.65 1.51 1.38 1.29 1.24 1.21 1.13 1.01 0.91 0.84 0.76 0.69 0.63 0.60 0.64 0.61 0.56 0.55 0.57 0.56 0.42 0.29 0.20 0.18 0.18 0.16 0.13 0.13 0.12 0.11 0.11 0.11 0.11
1.03 1.14 1.24 1.38 1.47 1.50 1.67 1.82 1.85 1.87 1.79 1.57 1.36 1.22 1.26 1.35 1.34 1.20 1.09 1.06 1.00 0.93 0.83 0.79 0.80 0.79 0.73 0.70 0.72 0.80 0.67 0.45 0.30 0.22 0.21 0.21 0.20 0.18 0.16 0.15 0.14 0.14 0.14
0.83 0.97 1.09 1.22 1.33 1.36 1.51 1.58 1.53 1.42 1.37 1.30 1.26 1.28 1.33 1.38 1.42 1.37 1.32 1.24 1.18 1.15 1.06 1.06 1.09 1.05 0.99 0.87 0.79 0.75 0.74 0.63 0.58 0.41 0.25 0.23 0.23 0.21 0.20 0.19 0.19 0.19 0.19
0.71 0.76 0.90 1.09 1.17 1.20 1.28 1.35 1.44 1.39 1.32 1.33 1.32 1.29 1.24 1.22 1.31 1.37 1.38 1.35 1.22 1.13 1.08 1.10 1.11 1.14 1.09 1.03 0.97 0.92 0.89 0.78 0.71 0.67 0.46 0.29 0.27 0.26 0.25 0.26 0.26 0.28 0.31
0.64 0.61 0.71 0.86 1.05 1.13 1.17 1.23 1.30 1.29 1.22 1.20 1.24 1.25 1.26 1.19 1.14 1.16 1.23 1.23 1.24 1.20 1.15 1.16 1.21 1.24 1.24 1.20 1.14 1.05 0.99 0.91 0.79 0.80 0.75 0.54 0.45 0.38 0.37 0.39 0.41 0.43 0.44